Time,TemperatureF,DewpointF,PressureIn,WindDirection,WindDirectionDegrees,WindSpeedMPH,WindSpeedGustMPH,Humidity,HourlyPrecipIn,Conditions,Clouds,dailyrainin,SoftwareType,DateUTC
2013-12-28 09:02:00,31.8,5.9,25.28,West,259,0.0,0.0,33,0.00,CLR,,0.00,WeatherDisplay:10.37,2013-12-28 14:02:00,
2013-12-28 09:03:00,32.0,6.1,26.69,West,259,0.0,0.0,33,0.00,CLR,,0.00,WeatherDisplay:10.37,2013-12-28 14:03:00,
2013-12-28 09:04:00,32.2,6.3,26.69,West,259,0.0,0.0,33,0.00,CLR,,0.00,WeatherDisplay:10.37,2013-12-28 14:04:00,
2013-12-28 09:05:00,32.4,6.4,26.69,West,259,0.0,0.0,33,0.00,CLR,,0.00,WeatherDisplay:10.37,2013-12-28 14:05:00,
2013-12-28 09:08:00,32.7,6.7,26.69,West,259,0.0,0.0,33,0.00,CLR,,0.00,WeatherDisplay:10.37,2013-12-28 14:08:00,
2013-12-28 09:09:00,32.7,6.7,26.69,West,259,0.0,0.0,33,0.00,CLR,,0.00,WeatherDisplay:10.37,2013-12-28 14:09:00,
2013-12-28 09:10:00,32.9,6.9,26.69,West,259,0.0,0.0,33,0.00,CLR,,0.00,WeatherDisplay:10.37,2013-12-28 14:10:00,
2013-12-28 09:11:00,32.9,6.9,26.69,West,259,0.0,0.0,33,0.00,CLR,,0.00,WeatherDisplay:10.37,2013-12-28 14:11:00,
2013-12-28 09:12:00,33.1,7.1,26.69,West,259,0.0,0.0,33,0.00,CLR,,0.00,WeatherDisplay:10.37,2013-12-28 14:12:00,
2013-12-28 09:13:00,33.1,7.1,26.69,West,259,0.0,0.0,33,0.00,CLR,,0.00,WeatherDisplay:10.37,2013-12-28 14:13:00,
2013-12-28 09:15:00,33.3,7.2,26.69,West,259,0.0,0.0,33,0.00,CLR,,0.00,WeatherDisplay:10.37,2013-12-28 14:15:00,
2013-12-28 09:16:00,33.4,7.4,26.69,West,259,0.0,0.0,33,0.00,CLR,,0.00,WeatherDisplay:10.37,2013-12-28 14:16:00,
2013-12-28 09:18:00,33.6,7.5,26.69,West,259,0.0,0.0,33,0.00,CLR,,0.00,WeatherDisplay:10.37,2013-12-28 14:18:00,
2013-12-28 09:19:00,33.6,7.5,26.69,West,259,0.0,0.0,33,0.00,CLR,,0.00,WeatherDisplay:10.37,2013-12-28 14:19:00,
2013-12-28 09:20:00,33.8,7.7,26.69,SW,231,0.0,0.0,33,0.00,CLR,,0.00,WeatherDisplay:10.37,2013-12-28 14:20:00,
2013-12-28 09:22:00,34.2,7.3,26.69,SW,231,0.0,0.0,32,0.00,CLR,,0.00,WeatherDisplay:10.37,2013-12-28 14:22:00,
2013-12-28 09:24:00,34.5,7.6,26.69,SW,231,0.0,0.0,32,0.00,CLR,,0.00,WeatherDisplay:10.37,2013-12-28 14:24:00,
2013-12-28 09:25:00,34.9,8.0,26.69,SW,231,0.0,0.0,32,0.00,CLR,,0.00,WeatherDisplay:10.37,2013-12-28 14:25:00,
2013-12-28 09:26:00,35.1,8.1,26.69,SW,231,0.0,0.0,32,0.00,CLR,,0.00,WeatherDisplay:10.37,2013-12-28 14:26:00,
2013-12-28 09:27:00,35.4,8.4,26.69,SW,231,0.0,0.0,32,0.00,CLR,,0.00,WeatherDisplay:10.37,2013-12-28 14:27:00,
2013-12-28 09:28:00,35.6,8.6,26.69,SW,231,0.0,0.0,32,0.00,CLR,,0.00,WeatherDisplay:10.37,2013-12-28 14:28:00,
2013-12-28 09:30:00,37.2,9.3,26.69,SW,231,0.0,0.0,31,0.00,CLR,,0.00,WeatherDisplay:10.37,2013-12-28 14:30:00,
2013-12-28 09:31:00,37.8,9.1,26.69,SW,231,0.0,0.0,30,0.00,CLR,,0.00,WeatherDisplay:10.37,2013-12-28 14:31:00,
2013-12-28 09:32:00,38.3,9.5,26.69,SW,231,0.0,0.0,30,0.00,CLR,,0.00,WeatherDisplay:10.37,2013-12-28 14:32:00,
2013-12-28 09:33:00,39.2,10.3,26.69,SW,231,0.0,0.0,30,0.00,CLR,,0.00,WeatherDisplay:10.37,2013-12-28 14:33:00,
2013-12-28 09:35:00,40.5,10.7,0.00,SW,231,0.0,0.0,29,0.00,CLR,CLR,0.00,WeatherDisplay:10.37,2013-12-28 14:35:00,
2013-12-28 09:36:00,43.7,12.7,26.69,SW,231,0.0,0.0,28,0.00,CLR,,0.00,WeatherDisplay:10.37,2013-12-28 14:36:00,
2013-12-28 09:37:00,44.2,13.1,26.69,SW,231,0.0,0.0,28,0.00,CLR,,0.00,WeatherDisplay:10.37,2013-12-28 14:37:00,
2013-12-28 09:39:00,45.7,11.8,26.69,SW,231,0.0,0.0,25,0.00,CLR,,0.00,WeatherDisplay:10.37,2013-12-28 14:39:00,
2013-12-28 09:40:00,46.2,12.3,26.69,SW,231,0.0,0.0,25,0.00,CLR,,0.00,WeatherDisplay:10.37,2013-12-28 14:40:00,
2013-12-28 09:41:00,46.8,11.8,26.69,SW,231,0.0,0.0,24,0.00,CLR,,0.00,WeatherDisplay:10.37,2013-12-28 14:41:00,
2013-12-28 09:45:00,47.7,10.7,0.00,SW,231,0.0,0.0,22,0.00,CLR,CLR,0.00,WeatherDisplay:10.37,2013-12-28 14:45:00,
2013-12-28 09:46:00,47.3,10.3,26.69,SW,231,0.0,0.0,22,0.00,CLR,,0.00,WeatherDisplay:10.37,2013-12-28 14:46:00,
2013-12-28 09:47:00,47.1,10.2,26.69,SW,231,0.0,0.0,22,0.00,CLR,,0.00,WeatherDisplay:10.37,2013-12-28 14:47:00,
2013-12-28 09:49:00,49.1,10.8,26.69,SW,231,0.0,0.0,21,0.00,CLR,,0.00,WeatherDisplay:10.37,2013-12-28 14:49:00,
2013-12-28 09:50:00,49.8,11.4,26.69,SW,231,0.0,0.0,21,0.00,CLR,,0.00,WeatherDisplay:10.37,2013-12-28 14:50:00,
2013-12-28 09:51:00,51.3,12.6,26.69,SW,231,0.0,0.0,21,0.00,CLR,,0.00,WeatherDisplay:10.37,2013-12-28 14:51:00,
2013-12-28 09:52:00,52.3,13.5,26.69,SW,231,0.0,0.0,21,0.00,CLR,,0.00,WeatherDisplay:10.37,2013-12-28 14:52:00,
2013-12-28 09:55:00,52.9,13.9,26.69,SW,231,0.0,0.0,21,0.00,CLR,,0.00,WeatherDisplay:10.37,2013-12-28 14:55:00,
2013-12-28 09:56:00,52.5,13.6,26.69,SW,231,0.0,0.0,21,0.00,CLR,,0.00,WeatherDisplay:10.37,2013-12-28 14:56:00,
2013-12-28 09:57:00,52.5,13.6,26.69,SW,231,0.0,0.0,21,0.00,CLR,,0.00,WeatherDisplay:10.37,2013-12-28 14:57:00,
2013-12-28 09:58:00,52.2,13.3,26.69,SW,231,0.0,0.0,21,0.00,CLR,,0.00,WeatherDisplay:10.37,2013-12-28 14:58:00,
2013-12-28 09:59:00,51.8,13.0,26.69,SW,231,0.0,0.0,21,0.00,CLR,,0.00,WeatherDisplay:10.37,2013-12-28 14:59:00,
2013-12-28 10:01:00,50.7,12.1,26.69,SW,231,0.0,0.0,21,0.00,CLR,,0.00,WeatherDisplay:10.37,2013-12-28 15:01:00,
2013-12-28 10:03:00,49.3,10.9,26.69,SW,231,0.0,0.0,21,0.00,CLR,,0.00,WeatherDisplay:10.37,2013-12-28 15:03:00,
2013-12-28 10:05:00,49.5,11.1,26.69,SW,231,0.0,0.0,21,0.00,CLR,,0.00,WeatherDisplay:10.37,2013-12-28 15:05:00,
2013-12-28 10:06:00,49.5,11.1,26.69,SW,231,0.0,0.0,21,0.00,CLR,,0.00,WeatherDisplay:10.37,2013-12-28 15:06:00,
2013-12-28 10:07:00,49.3,10.9,26.69,SW,231,0.0,0.0,21,0.00,CLR,,0.00,WeatherDisplay:10.37,2013-12-28 15:07:00,
2013-12-28 10:08:00,49.3,10.9,26.69,SW,231,0.0,0.0,21,0.00,CLR,,0.00,WeatherDisplay:10.37,2013-12-28 15:08:00,
2013-12-28 10:12:00,48.7,10.5,26.69,SW,231,0.0,0.0,21,0.00,CLR,,0.00,WeatherDisplay:10.37,2013-12-28 15:12:00,
2013-12-28 10:13:00,48.7,10.5,26.69,SW,231,0.0,0.0,21,0.00,CLR,,0.00,WeatherDisplay:10.37,2013-12-28 15:13:00,
2013-12-28 10:14:00,48.9,10.6,26.69,SW,231,0.0,0.0,21,0.00,CLR,,0.00,WeatherDisplay:10.37,2013-12-28 15:14:00,
2013-12-28 10:15:00,49.0,10.7,0.00,SW,231,0.0,0.0,21,0.00,CLR,CLR,0.00,WeatherDisplay:10.37,2013-12-28 15:15:00,
2013-12-28 10:18:00,50.2,11.7,26.69,SW,231,0.0,0.0,21,0.00,CLR,,0.00,WeatherDisplay:10.37,2013-12-28 15:18:00,
2013-12-28 10:19:00,50.7,12.1,26.69,WSW,240,0.0,0.0,21,0.00,CLR,,0.00,WeatherDisplay:10.37,2013-12-28 15:19:00,
2013-12-28 10:20:00,51.0,12.4,0.00,SW,232,0.0,0.0,21,0.00,CLR,CLR,0.00,WeatherDisplay:10.37,2013-12-28 15:20:00,
2013-12-28 10:22:00,51.4,12.7,26.69,NNE,30,0.0,0.0,21,0.00,CLR,,0.00,WeatherDisplay:10.37,2013-12-28 15:22:00,
2013-12-28 10:23:00,52.2,13.3,26.69,NNE,30,0.0,0.0,21,0.00,CLR,,0.00,WeatherDisplay:10.37,2013-12-28 15:23:00,
2013-12-28 10:24:00,51.8,13.0,26.69,NNE,28,0.0,0.0,21,0.00,CLR,,0.00,WeatherDisplay:10.37,2013-12-28 15:24:00,
2013-12-28 10:25:00,51.4,12.7,26.69,NNE,28,0.0,0.0,21,0.00,CLR,,0.00,WeatherDisplay:10.37,2013-12-28 15:25:00,
2013-12-28 10:27:00,52.0,13.2,26.69,SW,222,0.0,0.0,21,0.00,CLR,,0.00,WeatherDisplay:10.37,2013-12-28 15:27:00,
2013-12-28 10:28:00,51.8,13.0,26.69,SW,222,0.0,0.0,21,0.00,CLR,,0.00,WeatherDisplay:10.37,2013-12-28 15:28:00,
2013-12-28 10:29:00,51.4,12.7,26.69,SW,222,0.0,0.0,21,0.00,CLR,,0.00,WeatherDisplay:10.37,2013-12-28 15:29:00,
2013-12-28 10:30:00,51.5,12.8,0.00,WSW,257,0.0,0.0,21,0.00,CLR,CLR,0.00,WeatherDisplay:10.37,2013-12-28 15:30:00,
2013-12-28 10:33:00,51.6,12.9,26.69,SSE,162,0.0,0.0,21,0.00,CLR,,0.00,WeatherDisplay:10.37,2013-12-28 15:33:00,
2013-12-28 10:35:00,51.2,12.5,0.00,SSW,213,0.0,0.0,21,0.00,CLR,CLR,0.00,WeatherDisplay:10.37,2013-12-28 15:35:00,
2013-12-28 10:36:00,50.7,12.1,26.69,WSW,247,0.0,0.0,21,0.00,CLR,,0.00,WeatherDisplay:10.37,2013-12-28 15:36:00,
2013-12-28 10:39:00,50.2,11.7,26.69,WSW,249,0.0,0.0,21,0.00,CLR,,0.00,WeatherDisplay:10.37,2013-12-28 15:39:00,
2013-12-28 10:40:00,49.6,11.2,26.69,WSW,247,0.0,0.0,21,0.00,CLR,,0.00,WeatherDisplay:10.37,2013-12-28 15:40:00,
2013-12-28 10:41:00,49.5,11.1,26.69,WSW,245,0.0,0.0,21,0.00,CLR,,0.00,WeatherDisplay:10.37,2013-12-28 15:41:00,
2013-12-28 10:43:00,49.1,10.8,26.69,SSW,213,0.0,0.0,21,0.00,CLR,,0.00,WeatherDisplay:10.37,2013-12-28 15:43:00,
2013-12-28 10:46:00,47.3,10.3,26.69,ESE,116,2.3,0.0,22,0.00,CLR,,0.00,WeatherDisplay:10.37,2013-12-28 15:46:00,
2013-12-28 10:48:00,46.4,9.6,26.69,WSW,243,4.0,0.0,22,0.00,CLR,,0.00,WeatherDisplay:10.37,2013-12-28 15:48:00,
2013-12-28 10:49:00,46.2,9.4,26.69,WSW,240,3.5,0.0,22,0.00,CLR,,0.00,WeatherDisplay:10.37,2013-12-28 15:49:00,
2013-12-28 10:50:00,46.0,9.2,0.00,SW,236,0.0,4.0,22,0.00,CLR,CLR,0.00,WeatherDisplay:10.37,2013-12-28 15:50:00,
2013-12-28 10:54:00,44.8,8.2,26.69,SW,231,0.0,0.0,22,0.00,CLR,,0.00,WeatherDisplay:10.37,2013-12-28 15:54:00,
2013-12-28 10:55:00,45.3,8.6,26.69,SW,231,0.0,0.0,22,0.00,CLR,,0.00,WeatherDisplay:10.37,2013-12-28 15:55:00,
2013-12-28 10:57:00,46.2,9.4,26.69,SW,231,0.0,0.0,22,0.00,CLR,,0.00,WeatherDisplay:10.37,2013-12-28 15:57:00,
2013-12-28 10:58:00,47.1,10.2,26.69,SW,231,0.0,0.0,22,0.00,CLR,,0.00,WeatherDisplay:10.37,2013-12-28 15:58:00,
2013-12-28 11:00:00,48.0,9.9,0.00,SW,233,0.0,0.0,21,0.00,CLR,CLR,0.00,WeatherDisplay:10.37,2013-12-28 16:00:00,
2013-12-28 11:01:00,49.5,11.1,26.69,SW,235,0.0,0.0,21,0.00,CLR,,0.00,WeatherDisplay:10.37,2013-12-28 16:01:00,
2013-12-28 11:03:00,49.3,10.9,26.69,SW,235,0.0,0.0,21,0.00,CLR,,0.00,WeatherDisplay:10.37,2013-12-28 16:03:00,
2013-12-28 11:04:00,49.1,10.8,26.69,SW,235,0.0,0.0,21,0.00,CLR,,0.00,WeatherDisplay:10.37,2013-12-28 16:04:00,
2013-12-28 11:05:00,49.0,10.7,0.00,SW,233,0.0,0.0,21,0.04,RA,RA,0.04,WeatherDisplay:10.37,2013-12-28 16:05:00,
2013-12-28 11:06:00,49.3,10.9,26.69,WSW,245,0.0,0.0,21,0.04,RA,,0.04,WeatherDisplay:10.37,2013-12-28 16:06:00,
2013-12-28 11:09:00,51.3,12.6,26.69,SSW,208,2.7,0.0,21,0.04,RA,,0.04,WeatherDisplay:10.37,2013-12-28 16:09:00,
2013-12-28 11:10:00,51.3,12.6,26.69,SSW,210,2.3,0.0,21,0.04,RA,,0.04,WeatherDisplay:10.37,2013-12-28 16:10:00,
2013-12-28 11:12:00,51.6,12.9,26.69,SSE,166,0.0,0.0,21,0.04,RA,,0.04,WeatherDisplay:10.37,2013-12-28 16:12:00,
2013-12-28 11:13:00,52.3,13.5,26.69,SSW,193,0.0,0.0,21,0.04,RA,,0.04,WeatherDisplay:10.37,2013-12-28 16:13:00,
2013-12-28 11:15:00,53.1,14.1,26.69,North,2,0.0,0.0,21,0.04,,,0.04,WeatherDisplay:10.37,2013-12-28 16:15:00,
2013-12-28 11:16:00,54.5,14.2,26.69,North,2,0.0,0.0,20,0.04,,,0.04,WeatherDisplay:10.37,2013-12-28 16:16:00,
2013-12-28 11:17:00,55.0,14.6,26.69,North,3,0.0,0.0,20,0.04,CLR,,0.04,WeatherDisplay:10.37,2013-12-28 16:17:00,
2013-12-28 11:18:00,55.0,14.6,26.69,North,3,0.0,0.0,20,0.04,CLR,,0.04,WeatherDisplay:10.37,2013-12-28 16:18:00,
2013-12-28 11:20:00,53.8,13.6,26.69,SW,233,0.0,0.0,20,0.04,CLR,,0.04,WeatherDisplay:10.37,2013-12-28 16:20:00,
2013-12-28 11:21:00,53.4,14.4,26.69,SW,233,0.0,0.0,21,0.04,CLR,,0.04,WeatherDisplay:10.37,2013-12-28 16:21:00,
2013-12-28 11:24:00,53.4,14.4,26.69,SW,233,0.0,0.0,21,0.04,CLR,,0.04,WeatherDisplay:10.37,2013-12-28 16:24:00,
2013-12-28 11:26:00,54.3,14.0,26.69,SW,233,0.0,0.0,20,0.04,CLR,,0.04,WeatherDisplay:10.37,2013-12-28 16:26:00,
2013-12-28 11:30:00,56.5,15.8,26.69,SSE,160,0.0,0.0,20,0.04,CLR,,0.04,WeatherDisplay:10.37,2013-12-28 16:30:00,
2013-12-28 11:32:00,57.2,15.2,26.69,SW,228,0.0,0.0,19,0.04,CLR,,0.04,WeatherDisplay:10.37,2013-12-28 16:32:00,
2013-12-28 11:33:00,58.5,16.3,26.69,NNE,33,0.0,0.0,19,0.04,CLR,,0.04,WeatherDisplay:10.37,2013-12-28 16:33:00,
2013-12-28 11:35:00,58.1,16.0,26.69,NE,38,0.0,0.0,19,0.04,CLR,,0.04,WeatherDisplay:10.37,2013-12-28 16:35:00,
2013-12-28 11:36:00,58.8,16.6,26.69,NE,38,0.0,0.0,19,0.04,CLR,,0.04,WeatherDisplay:10.37,2013-12-28 16:36:00,
2013-12-28 11:37:00,59.5,17.2,26.69,SE,142,0.0,0.0,19,0.04,CLR,,0.04,WeatherDisplay:10.37,2013-12-28 16:37:00,
2013-12-28 11:39:00,59.7,17.3,26.69,SSE,161,0.0,0.0,19,0.04,CLR,,0.04,WeatherDisplay:10.37,2013-12-28 16:39:00,
2013-12-28 11:40:00,59.5,17.1,0.00,SSE,150,0.0,0.0,19,0.00,CLR,CLR,0.04,WeatherDisplay:10.37,2013-12-28 16:40:00,
2013-12-28 11:42:00,60.1,17.6,26.69,SSE,161,0.0,0.0,19,0.04,CLR,,0.04,WeatherDisplay:10.37,2013-12-28 16:42:00,
2013-12-28 11:43:00,60.6,18.1,26.69,SSW,199,0.0,0.0,19,0.04,CLR,,0.04,WeatherDisplay:10.37,2013-12-28 16:43:00,
2013-12-28 11:45:00,60.5,18.0,0.00,SSE,151,0.0,0.0,19,0.00,CLR,CLR,0.04,WeatherDisplay:10.37,2013-12-28 16:45:00,
2013-12-28 11:49:00,60.1,17.6,26.69,SW,216,3.5,0.0,19,0.04,CLR,,0.04,WeatherDisplay:10.37,2013-12-28 16:49:00,
2013-12-28 11:50:00,60.1,17.6,26.69,SW,216,0.0,0.0,19,0.04,CLR,,0.04,WeatherDisplay:10.37,2013-12-28 16:50:00,
2013-12-28 11:51:00,60.8,18.2,26.69,South,190,0.0,0.0,19,0.04,CLR,,0.04,WeatherDisplay:10.37,2013-12-28 16:51:00,
2013-12-28 11:53:00,60.6,18.1,26.69,SW,231,0.0,0.0,19,0.04,CLR,,0.04,WeatherDisplay:10.37,2013-12-28 16:53:00,
2013-12-28 11:54:00,60.8,18.2,26.69,SSE,163,0.0,0.0,19,0.04,CLR,,0.04,WeatherDisplay:10.37,2013-12-28 16:54:00,
2013-12-28 11:56:00,60.4,17.9,26.69,SSE,163,0.0,0.0,19,0.04,CLR,,0.04,WeatherDisplay:10.37,2013-12-28 16:56:00,
2013-12-28 11:58:00,60.4,17.9,26.69,SSE,163,0.0,0.0,19,0.04,CLR,,0.04,WeatherDisplay:10.37,2013-12-28 16:58:00,
2013-12-28 12:00:00,60.3,17.8,0.00,South,184,0.0,3.0,19,0.00,CLR,CLR,0.04,WeatherDisplay:10.37,2013-12-28 17:00:00,
2013-12-28 12:02:00,61.9,19.1,26.69,West,260,0.0,0.0,19,0.04,CLR,,0.04,WeatherDisplay:10.37,2013-12-28 17:02:00,
2013-12-28 12:03:00,61.9,19.1,26.69,WSW,258,0.0,0.0,19,0.04,CLR,,0.04,WeatherDisplay:10.37,2013-12-28 17:03:00,
2013-12-28 12:04:00,61.7,19.0,26.69,WSW,258,0.0,0.0,19,0.04,CLR,,0.04,WeatherDisplay:10.37,2013-12-28 17:04:00,
2013-12-28 12:06:00,60.6,18.1,26.69,East,95,0.0,0.0,19,0.00,CLR,,0.04,WeatherDisplay:10.37,2013-12-28 17:06:00,
2013-12-28 12:10:00,60.3,17.8,26.69,West,265,0.0,0.0,19,0.00,CLR,,0.04,WeatherDisplay:10.37,2013-12-28 17:10:00,
2013-12-28 12:11:00,59.5,17.2,26.69,West,265,0.0,0.0,19,0.00,CLR,,0.04,WeatherDisplay:10.37,2013-12-28 17:11:00,
2013-12-28 12:12:00,59.5,17.2,26.69,NW,310,0.0,0.0,19,0.00,CLR,,0.04,WeatherDisplay:10.37,2013-12-28 17:12:00,
2013-12-28 12:13:00,59.4,17.0,26.69,NW,310,0.0,0.0,19,0.00,CLR,,0.04,WeatherDisplay:10.37,2013-12-28 17:13:00,
2013-12-28 12:14:00,58.8,16.6,26.69,NW,310,0.0,0.0,19,0.00,CLR,,0.04,WeatherDisplay:10.37,2013-12-28 17:14:00,
2013-12-28 12:17:00,57.4,15.4,26.69,SSW,211,0.0,0.0,19,0.00,CLR,,0.04,WeatherDisplay:10.37,2013-12-28 17:17:00,
2013-12-28 12:19:00,56.1,15.5,26.69,East,90,0.0,0.0,20,0.00,CLR,,0.04,WeatherDisplay:10.37,2013-12-28 17:19:00,
2013-12-28 12:20:00,55.0,14.6,26.69,SSW,213,0.0,0.0,20,0.00,CLR,,0.04,WeatherDisplay:10.37,2013-12-28 17:20:00,
2013-12-28 12:22:00,54.0,13.7,26.69,ESE,113,0.0,0.0,20,0.00,CLR,,0.04,WeatherDisplay:10.37,2013-12-28 17:22:00,
2013-12-28 12:24:00,52.2,13.3,26.69,SSW,200,0.0,0.0,21,0.00,CLR,,0.04,WeatherDisplay:10.37,2013-12-28 17:24:00,
2013-12-28 12:25:00,52.4,13.5,0.00,SSW,197,0.0,0.0,21,0.00,CLR,CLR,0.04,WeatherDisplay:10.37,2013-12-28 17:25:00,
2013-12-28 12:26:00,51.3,12.6,26.69,WSW,246,0.0,0.0,21,0.00,CLR,,0.04,WeatherDisplay:10.37,2013-12-28 17:26:00,
2013-12-28 12:27:00,50.7,12.1,26.69,ENE,63,0.0,0.0,21,0.00,CLR,,0.04,WeatherDisplay:10.37,2013-12-28 17:27:00,
2013-12-28 12:30:00,49.5,11.1,26.69,South,191,0.0,0.0,21,0.00,CLR,,0.04,WeatherDisplay:10.37,2013-12-28 17:30:00,
2013-12-28 12:31:00,50.2,11.7,26.69,SW,224,0.0,0.0,21,0.00,CLR,,0.04,WeatherDisplay:10.37,2013-12-28 17:31:00,
2013-12-28 12:32:00,50.2,11.7,26.69,SW,223,0.0,0.0,21,0.00,CLR,,0.04,WeatherDisplay:10.37,2013-12-28 17:32:00,
2013-12-28 12:33:00,50.4,11.8,26.69,SSW,207,0.0,0.0,21,0.00,CLR,,0.04,WeatherDisplay:10.37,2013-12-28 17:33:00,
2013-12-28 12:34:00,50.4,11.8,26.69,SSE,163,0.0,0.0,21,0.00,CLR,,0.04,WeatherDisplay:10.37,2013-12-28 17:34:00,
2013-12-28 12:37:00,49.8,11.4,26.69,South,180,0.0,0.0,21,0.00,CLR,,0.04,WeatherDisplay:10.37,2013-12-28 17:37:00,
2013-12-28 12:38:00,50.0,11.5,26.69,SSW,209,0.0,0.0,21,0.00,CLR,,0.04,WeatherDisplay:10.37,2013-12-28 17:38:00,
2013-12-28 12:39:00,50.2,11.7,26.69,ESE,123,0.0,0.0,21,0.00,CLR,,0.04,WeatherDisplay:10.37,2013-12-28 17:39:00,
2013-12-28 12:41:00,49.8,11.4,26.69,SW,217,0.0,0.0,21,0.00,CLR,,0.04,WeatherDisplay:10.37,2013-12-28 17:41:00,
2013-12-28 12:42:00,49.5,11.1,26.69,SW,227,0.0,0.0,21,0.00,CLR,,0.04,WeatherDisplay:10.37,2013-12-28 17:42:00,
2013-12-28 12:44:00,48.6,10.3,26.69,SW,227,0.0,0.0,21,0.00,CLR,,0.04,WeatherDisplay:10.37,2013-12-28 17:44:00,
2013-12-28 12:46:00,48.2,10.0,26.69,SE,137,0.0,0.0,21,0.00,CLR,,0.04,WeatherDisplay:10.37,2013-12-28 17:46:00,
2013-12-28 12:47:00,47.8,10.8,26.69,SE,137,0.0,0.0,22,0.00,CLR,,0.04,WeatherDisplay:10.37,2013-12-28 17:47:00,
2013-12-28 12:49:00,48.0,10.9,26.69,SSE,160,0.0,0.0,22,0.00,CLR,,0.04,WeatherDisplay:10.37,2013-12-28 17:49:00,
2013-12-28 12:50:00,48.0,10.9,0.00,South,181,0.0,0.0,22,0.00,CLR,CLR,0.04,WeatherDisplay:10.37,2013-12-28 17:50:00,
2013-12-28 12:52:00,48.2,10.0,26.69,SSE,157,0.0,0.0,21,0.00,CLR,,0.04,WeatherDisplay:10.37,2013-12-28 17:52:00,
2013-12-28 12:54:00,47.8,10.8,26.69,South,178,0.0,0.0,22,0.00,CLR,,0.04,WeatherDisplay:10.37,2013-12-28 17:54:00,
2013-12-28 12:56:00,47.3,10.3,26.69,SSE,149,0.0,0.0,22,0.00,CLR,,0.04,WeatherDisplay:10.37,2013-12-28 17:56:00,
2013-12-28 12:58:00,47.1,10.2,26.69,SSE,157,0.0,0.0,22,0.00,CLR,,0.04,WeatherDisplay:10.37,2013-12-28 17:58:00,
2013-12-28 12:59:00,47.1,10.2,26.69,SSE,163,0.0,0.0,22,0.00,CLR,,0.04,WeatherDisplay:10.37,2013-12-28 17:59:00,
2013-12-28 13:00:00,48.0,10.9,26.69,South,175,0.0,0.0,22,0.00,CLR,,0.04,WeatherDisplay:10.37,2013-12-28 18:00:00,
2013-12-28 13:02:00,48.7,10.5,26.69,South,175,0.0,0.0,21,0.00,CLR,,0.04,WeatherDisplay:10.37,2013-12-28 18:02:00,
2013-12-28 13:04:00,49.6,11.2,26.69,SW,216,3.5,0.0,21,0.00,CLR,,0.04,WeatherDisplay:10.37,2013-12-28 18:04:00,
2013-12-28 13:05:00,49.5,11.1,0.00,South,172,0.0,4.0,21,0.00,CLR,CLR,0.04,WeatherDisplay:10.37,2013-12-28 18:05:00,
2013-12-28 13:06:00,50.2,11.7,26.69,ESE,118,0.0,0.0,21,0.04,RA,,0.08,WeatherDisplay:10.37,2013-12-28 18:06:00,
2013-12-28 13:07:00,50.4,11.8,26.69,WSW,238,0.0,0.0,21,0.04,RA,,0.08,WeatherDisplay:10.37,2013-12-28 18:07:00,
2013-12-28 13:09:00,49.8,11.4,26.69,SW,233,0.0,0.0,21,0.04,RA,,0.08,WeatherDisplay:10.37,2013-12-28 18:09:00,
2013-12-28 13:10:00,50.0,11.5,0.00,South,170,0.0,0.0,21,0.00,RA,RA,0.08,WeatherDisplay:10.37,2013-12-28 18:10:00,
2013-12-28 13:11:00,48.9,10.6,26.69,SE,139,3.5,0.0,21,0.04,RA,,0.08,WeatherDisplay:10.37,2013-12-28 18:11:00,
2013-12-28 13:12:00,48.4,10.2,26.69,SSE,168,2.3,0.0,21,0.04,RA,,0.08,WeatherDisplay:10.37,2013-12-28 18:12:00,
2013-12-28 13:14:00,48.0,10.9,26.69,SSE,167,0.0,0.0,22,0.04,RA,,0.08,WeatherDisplay:10.37,2013-12-28 18:14:00,
2013-12-28 13:15:00,48.0,10.9,26.69,SSE,163,0.0,0.0,22,0.04,RA,,0.08,WeatherDisplay:10.37,2013-12-28 18:15:00,
2013-12-28 13:16:00,48.0,10.9,26.69,West,261,0.0,0.0,22,0.04,,,0.08,WeatherDisplay:10.37,2013-12-28 18:16:00,
2013-12-28 13:19:00,47.7,10.6,26.69,West,261,0.0,0.0,22,0.04,CLR,,0.08,WeatherDisplay:10.37,2013-12-28 18:19:00,
2013-12-28 13:20:00,47.7,10.6,26.69,South,186,0.0,0.0,22,0.04,CLR,,0.08,WeatherDisplay:10.37,2013-12-28 18:20:00,
2013-12-28 13:21:00,47.5,10.5,26.69,South,186,0.0,0.0,22,0.04,CLR,,0.08,WeatherDisplay:10.37,2013-12-28 18:21:00,
2013-12-28 13:24:00,47.3,10.3,26.69,WSW,250,2.3,0.0,22,0.04,CLR,,0.08,WeatherDisplay:10.37,2013-12-28 18:24:00,
2013-12-28 13:25:00,47.1,10.2,26.69,North,353,2.3,0.0,22,0.04,CLR,,0.08,WeatherDisplay:10.37,2013-12-28 18:25:00,
2013-12-28 13:26:00,46.9,10.0,26.69,North,353,2.3,0.0,22,0.04,CLR,,0.08,WeatherDisplay:10.37,2013-12-28 18:26:00,
2013-12-28 13:27:00,46.8,9.9,26.69,SW,218,0.0,0.0,22,0.04,CLR,,0.08,WeatherDisplay:10.37,2013-12-28 18:27:00,
2013-12-28 13:30:00,46.6,9.7,0.00,SW,214,0.0,3.0,22,0.00,CLR,CLR,0.08,WeatherDisplay:10.37,2013-12-28 18:30:00,
2013-12-28 13:31:00,46.4,9.6,26.69,ENE,78,0.0,0.0,22,0.04,CLR,,0.08,WeatherDisplay:10.37,2013-12-28 18:31:00,
2013-12-28 13:32:00,46.2,9.4,26.69,SE,136,3.5,0.0,22,0.04,CLR,,0.08,WeatherDisplay:10.37,2013-12-28 18:32:00,
2013-12-28 13:33:00,46.0,9.2,26.69,SE,136,0.0,0.0,22,0.04,CLR,,0.08,WeatherDisplay:10.37,2013-12-28 18:33:00,
2013-12-28 13:34:00,46.0,9.2,26.69,SSE,165,0.0,0.0,22,0.04,CLR,,0.08,WeatherDisplay:10.37,2013-12-28 18:34:00,
2013-12-28 13:37:00,45.9,9.1,26.69,SE,130,0.0,0.0,22,0.04,CLR,,0.08,WeatherDisplay:10.37,2013-12-28 18:37:00,
2013-12-28 13:39:00,45.9,9.1,26.69,South,186,0.0,0.0,22,0.04,CLR,,0.08,WeatherDisplay:10.37,2013-12-28 18:39:00,
2013-12-28 13:40:00,45.8,9.1,0.00,SE,145,0.0,3.0,22,0.00,CLR,CLR,0.08,WeatherDisplay:10.37,2013-12-28 18:40:00,
2013-12-28 13:41:00,45.7,8.9,26.69,SW,219,0.0,0.0,22,0.04,CLR,,0.08,WeatherDisplay:10.37,2013-12-28 18:41:00,
2013-12-28 13:44:00,45.5,8.8,26.69,SW,230,0.0,0.0,22,0.04,CLR,,0.08,WeatherDisplay:10.37,2013-12-28 18:44:00,
2013-12-28 13:45:00,45.5,8.8,0.00,SSW,196,0.0,4.0,22,0.00,CLR,CLR,0.08,WeatherDisplay:10.37,2013-12-28 18:45:00,
2013-12-28 13:46:00,45.5,8.8,26.69,SSW,212,0.0,0.0,22,0.04,CLR,,0.08,WeatherDisplay:10.37,2013-12-28 18:46:00,
2013-12-28 13:47:00,45.5,8.8,26.69,WSW,244,0.0,0.0,22,0.04,CLR,,0.08,WeatherDisplay:10.37,2013-12-28 18:47:00,
2013-12-28 13:51:00,45.5,8.8,26.69,SE,131,0.0,0.0,22,0.04,CLR,,0.08,WeatherDisplay:10.37,2013-12-28 18:51:00,
2013-12-28 13:52:00,45.5,8.8,26.69,SE,131,0.0,0.0,22,0.04,CLR,,0.08,WeatherDisplay:10.37,2013-12-28 18:52:00,
2013-12-28 13:53:00,45.5,8.8,26.69,SE,131,0.0,0.0,22,0.04,CLR,,0.08,WeatherDisplay:10.37,2013-12-28 18:53:00,
2013-12-28 13:56:00,45.5,8.8,26.69,South,189,0.0,0.0,22,0.04,CLR,,0.08,WeatherDisplay:10.37,2013-12-28 18:56:00,
2013-12-28 13:57:00,45.5,8.8,26.69,South,189,0.0,0.0,22,0.04,CLR,,0.08,WeatherDisplay:10.37,2013-12-28 18:57:00,
2013-12-28 13:59:00,45.5,8.8,26.69,South,173,0.0,0.0,22,0.04,CLR,,0.08,WeatherDisplay:10.37,2013-12-28 18:59:00,
2013-12-28 14:01:00,45.5,8.8,26.69,SSE,157,0.0,0.0,22,0.04,CLR,,0.08,WeatherDisplay:10.37,2013-12-28 19:01:00,
2013-12-28 14:02:00,45.3,8.6,26.69,WSW,239,3.5,0.0,22,0.04,CLR,,0.08,WeatherDisplay:10.37,2013-12-28 19:02:00,
2013-12-28 14:06:00,45.5,8.8,26.69,WSW,239,0.0,0.0,22,0.00,CLR,,0.08,WeatherDisplay:10.37,2013-12-28 19:06:00,
2013-12-28 14:07:00,45.5,8.8,26.69,SW,214,0.0,0.0,22,0.00,CLR,,0.08,WeatherDisplay:10.37,2013-12-28 19:07:00,
2013-12-28 14:08:00,45.5,8.8,26.69,SW,214,0.0,0.0,22,0.00,CLR,,0.08,WeatherDisplay:10.37,2013-12-28 19:08:00,
2013-12-28 14:11:00,45.5,8.8,26.69,South,185,0.0,0.0,22,0.00,CLR,,0.08,WeatherDisplay:10.37,2013-12-28 19:11:00,
2013-12-28 14:13:00,45.5,8.8,26.69,SSE,159,3.5,0.0,22,0.00,CLR,,0.08,WeatherDisplay:10.37,2013-12-28 19:13:00,
2013-12-28 14:14:00,45.5,8.8,26.69,WSW,253,3.1,0.0,22,0.00,CLR,,0.08,WeatherDisplay:10.37,2013-12-28 19:14:00,
2013-12-28 14:15:00,45.5,8.8,26.69,SW,233,3.5,0.0,22,0.00,CLR,,0.08,WeatherDisplay:10.37,2013-12-28 19:15:00,
2013-12-28 14:17:00,45.5,8.8,26.69,SW,233,0.0,0.0,22,0.00,CLR,,0.08,WeatherDisplay:10.37,2013-12-28 19:17:00,
2013-12-28 14:18:00,45.5,8.8,26.69,SW,218,3.5,0.0,22,0.00,CLR,,0.08,WeatherDisplay:10.37,2013-12-28 19:18:00,
2013-12-28 14:19:00,45.5,8.8,26.69,SW,218,3.5,0.0,22,0.00,CLR,,0.08,WeatherDisplay:10.37,2013-12-28 19:19:00,
2013-12-28 14:23:00,45.7,8.9,26.69,WSW,242,0.0,0.0,22,0.00,CLR,,0.08,WeatherDisplay:10.37,2013-12-28 19:23:00,
2013-12-28 14:24:00,45.7,8.9,26.69,South,173,0.0,0.0,22,0.00,CLR,,0.08,WeatherDisplay:10.37,2013-12-28 19:24:00,
2013-12-28 14:25:00,45.7,8.9,0.00,SW,223,0.0,0.0,22,0.00,CLR,CLR,0.08,WeatherDisplay:10.37,2013-12-28 19:25:00,
2013-12-28 14:28:00,45.7,8.9,26.69,SW,220,2.3,0.0,22,0.00,CLR,,0.08,WeatherDisplay:10.37,2013-12-28 19:28:00,
2013-12-28 14:30:00,45.7,9.0,0.00,SSW,200,0.0,3.0,22,0.00,CLR,CLR,0.08,WeatherDisplay:10.37,2013-12-28 19:30:00,
2013-12-28 14:31:00,45.9,9.1,26.69,SSW,196,2.7,2.7,22,0.00,CLR,,0.08,WeatherDisplay:10.37,2013-12-28 19:31:00,
2013-12-28 14:32:00,45.9,9.1,26.69,SSW,202,3.5,0.0,22,0.00,CLR,,0.08,WeatherDisplay:10.37,2013-12-28 19:32:00,
2013-12-28 14:34:00,45.9,9.1,26.69,SSW,202,0.0,0.0,22,0.00,CLR,,0.08,WeatherDisplay:10.37,2013-12-28 19:34:00,
2013-12-28 14:35:00,45.9,9.1,26.69,South,170,0.0,0.0,22,0.00,CLR,,0.08,WeatherDisplay:10.37,2013-12-28 19:35:00,
2013-12-28 14:38:00,46.0,9.2,26.69,ENE,65,0.0,0.0,22,0.00,CLR,,0.08,WeatherDisplay:10.37,2013-12-28 19:38:00,
2013-12-28 14:39:00,46.0,9.2,26.69,SE,141,0.0,0.0,22,0.00,CLR,,0.08,WeatherDisplay:10.37,2013-12-28 19:39:00,
2013-12-28 14:40:00,46.0,9.2,0.00,SSE,159,0.0,7.0,22,0.00,CLR,CLR,0.08,WeatherDisplay:10.37,2013-12-28 19:40:00,
2013-12-28 14:41:00,46.2,9.4,26.69,SE,141,0.0,0.0,22,0.00,CLR,,0.08,WeatherDisplay:10.37,2013-12-28 19:41:00,
2013-12-28 14:43:00,46.4,9.6,26.69,SW,219,3.5,0.0,22,0.00,CLR,,0.08,WeatherDisplay:10.37,2013-12-28 19:43:00,
2013-12-28 14:45:00,46.5,9.6,0.00,SSE,150,0.0,4.0,22,0.00,CLR,CLR,0.08,WeatherDisplay:10.37,2013-12-28 19:45:00,
2013-12-28 14:48:00,46.6,9.7,26.69,SSW,198,0.0,0.0,22,0.00,CLR,,0.08,WeatherDisplay:10.37,2013-12-28 19:48:00,
2013-12-28 14:50:00,46.7,9.8,0.00,South,179,0.0,0.0,22,0.00,CLR,CLR,0.08,WeatherDisplay:10.37,2013-12-28 19:50:00,
2013-12-28 14:51:00,46.8,9.9,26.69,SSW,198,0.0,0.0,22,0.00,CLR,,0.08,WeatherDisplay:10.37,2013-12-28 19:51:00,
2013-12-28 14:52:00,46.8,9.9,26.69,SSW,198,0.0,0.0,22,0.00,CLR,,0.08,WeatherDisplay:10.37,2013-12-28 19:52:00,
2013-12-28 14:53:00,46.9,10.0,26.69,SSW,198,0.0,0.0,22,0.00,CLR,,0.08,WeatherDisplay:10.37,2013-12-28 19:53:00,
2013-12-28 14:55:00,46.9,10.0,26.69,SSE,168,0.0,0.0,22,0.00,CLR,,0.08,WeatherDisplay:10.37,2013-12-28 19:55:00,
2013-12-28 14:56:00,46.9,10.0,26.69,SSE,168,0.0,0.0,22,0.00,CLR,,0.08,WeatherDisplay:10.37,2013-12-28 19:56:00,
2013-12-28 14:57:00,46.9,10.0,26.69,ENE,65,0.0,0.0,22,0.00,CLR,,0.08,WeatherDisplay:10.37,2013-12-28 19:57:00,
2013-12-28 14:58:00,47.1,10.2,26.69,SSE,163,0.0,0.0,22,0.00,CLR,,0.08,WeatherDisplay:10.37,2013-12-28 19:58:00,
2013-12-28 15:00:00,47.1,10.2,0.00,South,179,0.0,0.0,22,0.00,CLR,CLR,0.08,WeatherDisplay:10.37,2013-12-28 20:00:00,
2013-12-28 15:01:00,47.1,10.2,26.69,SSW,202,0.0,0.0,22,0.00,CLR,,0.08,WeatherDisplay:10.37,2013-12-28 20:01:00,
2013-12-28 15:03:00,47.1,10.2,26.69,SSE,167,0.0,0.0,22,0.00,CLR,,0.08,WeatherDisplay:10.37,2013-12-28 20:03:00,
2013-12-28 15:04:00,47.1,10.2,26.69,South,191,0.0,0.0,22,0.00,CLR,,0.08,WeatherDisplay:10.37,2013-12-28 20:04:00,
2013-12-28 15:05:00,47.3,10.3,26.69,SSE,162,0.0,0.0,22,0.00,CLR,,0.08,WeatherDisplay:10.37,2013-12-28 20:05:00,
2013-12-28 15:09:00,47.3,10.3,26.69,SSE,161,0.0,0.0,22,0.00,CLR,,0.08,WeatherDisplay:10.37,2013-12-28 20:09:00,
2013-12-28 15:10:00,47.3,10.3,0.00,South,182,0.0,3.0,22,0.00,CLR,CLR,0.08,WeatherDisplay:10.37,2013-12-28 20:10:00,
2013-12-28 15:11:00,47.3,10.3,26.69,East,100,3.5,0.0,22,0.00,CLR,,0.08,WeatherDisplay:10.37,2013-12-28 20:11:00,
2013-12-28 15:12:00,47.3,10.3,26.69,SSE,167,3.5,0.0,22,0.00,CLR,,0.08,WeatherDisplay:10.37,2013-12-28 20:12:00,
2013-12-28 15:13:00,47.3,10.3,26.69,South,188,0.0,0.0,22,0.00,CLR,,0.08,WeatherDisplay:10.37,2013-12-28 20:13:00,
2013-12-28 15:15:00,47.3,10.3,0.00,South,175,0.0,3.0,22,0.00,CLR,CLR,0.08,WeatherDisplay:10.37,2013-12-28 20:15:00,
2013-12-28 15:16:00,47.3,10.3,26.69,SSE,166,0.0,0.0,22,0.00,CLR,,0.08,WeatherDisplay:10.37,2013-12-28 20:16:00,
2013-12-28 15:18:00,47.3,10.3,26.69,SSE,156,0.0,0.0,22,0.00,CLR,,0.08,WeatherDisplay:10.37,2013-12-28 20:18:00,
2013-12-28 15:20:00,47.5,10.5,26.69,SW,236,0.0,0.0,22,0.00,CLR,,0.08,WeatherDisplay:10.37,2013-12-28 20:20:00,
2013-12-28 15:23:00,47.7,10.6,26.69,SE,142,0.0,0.0,22,0.00,CLR,,0.08,WeatherDisplay:10.37,2013-12-28 20:23:00,
2013-12-28 15:25:00,47.7,10.6,0.00,SSE,162,0.0,0.0,22,0.00,CLR,CLR,0.08,WeatherDisplay:10.37,2013-12-28 20:25:00,
2013-12-28 15:26:00,47.8,10.8,26.69,SE,142,0.0,0.0,22,0.00,CLR,,0.08,WeatherDisplay:10.37,2013-12-28 20:26:00,
2013-12-28 15:27:00,47.8,10.8,26.69,SE,142,0.0,0.0,22,0.00,CLR,,0.08,WeatherDisplay:10.37,2013-12-28 20:27:00,
2013-12-28 15:30:00,47.9,10.8,0.00,SE,142,0.0,0.0,22,0.00,CLR,CLR,0.08,WeatherDisplay:10.37,2013-12-28 20:30:00,
2013-12-28 15:31:00,48.0,10.9,26.69,SE,142,0.0,0.0,22,0.00,CLR,,0.08,WeatherDisplay:10.37,2013-12-28 20:31:00,
2013-12-28 15:32:00,48.0,10.9,26.69,SE,142,0.0,0.0,22,0.00,CLR,,0.08,WeatherDisplay:10.37,2013-12-28 20:32:00,
2013-12-28 15:33:00,48.0,10.9,26.69,SE,142,0.0,0.0,22,0.00,CLR,,0.08,WeatherDisplay:10.37,2013-12-28 20:33:00,
2013-12-28 15:36:00,48.0,10.9,26.69,SSW,209,0.0,0.0,22,0.00,CLR,,0.08,WeatherDisplay:10.37,2013-12-28 20:36:00,
2013-12-28 15:38:00,48.0,10.9,26.69,SE,127,0.0,0.0,22,0.00,CLR,,0.08,WeatherDisplay:10.37,2013-12-28 20:38:00,
2013-12-28 15:39:00,48.2,10.0,26.69,SE,145,0.0,0.0,21,0.00,CLR,,0.08,WeatherDisplay:10.37,2013-12-28 20:39:00,
2013-12-28 15:40:00,48.1,11.0,0.00,SSE,159,0.0,3.0,22,0.00,CLR,CLR,0.08,WeatherDisplay:10.37,2013-12-28 20:40:00,
2013-12-28 15:42:00,48.0,10.9,26.69,South,186,0.0,0.0,22,0.00,CLR,,0.08,WeatherDisplay:10.37,2013-12-28 20:42:00,
2013-12-28 15:43:00,48.2,10.0,26.69,East,85,0.0,0.0,21,0.00,CLR,,0.08,WeatherDisplay:10.37,2013-12-28 20:43:00,
2013-12-28 15:45:00,48.2,10.0,26.69,East,85,0.0,0.0,21,0.00,CLR,,0.08,WeatherDisplay:10.37,2013-12-28 20:45:00,
2013-12-28 15:46:00,48.2,10.0,26.69,ESE,115,0.0,0.0,21,0.00,CLR,,0.08,WeatherDisplay:10.37,2013-12-28 20:46:00,
2013-12-28 15:48:00,48.2,10.0,26.69,SSE,151,0.0,0.0,21,0.00,CLR,,0.08,WeatherDisplay:10.37,2013-12-28 20:48:00,
2013-12-28 15:50:00,48.2,10.0,0.00,SE,142,0.0,0.0,21,0.00,CLR,CLR,0.08,WeatherDisplay:10.37,2013-12-28 20:50:00,
2013-12-28 15:51:00,48.2,10.0,26.69,South,191,0.0,0.0,21,0.00,CLR,,0.08,WeatherDisplay:10.37,2013-12-28 20:51:00,
2013-12-28 15:52:00,48.2,10.0,26.69,SSW,192,3.5,0.0,21,0.00,CLR,,0.08,WeatherDisplay:10.37,2013-12-28 20:52:00,
2013-12-28 15:55:00,48.2,10.0,26.69,SSW,204,0.0,0.0,21,0.00,CLR,,0.08,WeatherDisplay:10.37,2013-12-28 20:55:00,
2013-12-28 15:56:00,48.0,10.9,26.69,South,188,3.5,0.0,22,0.00,CLR,,0.08,WeatherDisplay:10.37,2013-12-28 20:56:00,
2013-12-28 15:57:00,48.0,10.9,26.69,ESE,116,3.6,0.0,22,0.00,CLR,,0.08,WeatherDisplay:10.37,2013-12-28 20:57:00,
2013-12-28 15:58:00,48.0,10.9,26.69,SE,127,2.3,0.0,22,0.00,CLR,,0.08,WeatherDisplay:10.37,2013-12-28 20:58:00,
2013-12-28 16:01:00,47.7,10.6,26.69,SW,222,0.0,0.0,22,0.00,CLR,,0.08,WeatherDisplay:10.37,2013-12-28 21:01:00,
2013-12-28 16:02:00,47.7,10.6,26.69,SW,222,0.0,0.0,22,0.00,CLR,,0.08,WeatherDisplay:10.37,2013-12-28 21:02:00,
2013-12-28 16:03:00,47.7,10.6,26.69,SW,222,0.0,0.0,22,0.00,CLR,,0.08,WeatherDisplay:10.37,2013-12-28 21:03:00,
2013-12-28 16:06:00,47.3,10.3,26.69,SSW,200,0.0,0.0,22,0.00,CLR,,0.08,WeatherDisplay:10.37,2013-12-28 21:06:00,
2013-12-28 16:07:00,47.3,10.3,26.69,SSW,200,0.0,0.0,22,0.00,CLR,,0.08,WeatherDisplay:10.37,2013-12-28 21:07:00,
2013-12-28 16:08:00,47.3,10.3,26.69,SSW,200,0.0,0.0,22,0.00,CLR,,0.08,WeatherDisplay:10.37,2013-12-28 21:08:00,
2013-12-28 16:09:00,47.3,10.3,26.69,SSW,200,0.0,0.0,22,0.00,CLR,,0.08,WeatherDisplay:10.37,2013-12-28 21:09:00,
2013-12-28 16:12:00,46.9,10.0,26.69,South,175,0.0,0.0,22,0.00,CLR,,0.08,WeatherDisplay:10.37,2013-12-28 21:12:00,
2013-12-28 16:13:00,46.8,9.9,26.69,South,175,0.0,0.0,22,0.00,CLR,,0.08,WeatherDisplay:10.37,2013-12-28 21:13:00,
2013-12-28 16:14:00,46.6,9.7,26.69,South,176,0.0,0.0,22,0.00,CLR,,0.08,WeatherDisplay:10.37,2013-12-28 21:14:00,
2013-12-28 16:17:00,46.4,9.6,26.69,South,176,0.0,0.0,22,0.00,CLR,,0.08,WeatherDisplay:10.37,2013-12-28 21:17:00,
2013-12-28 16:18:00,46.2,9.4,26.69,South,176,0.0,0.0,22,0.00,CLR,,0.08,WeatherDisplay:10.37,2013-12-28 21:18:00,
2013-12-28 16:19:00,46.0,9.2,26.69,South,176,0.0,0.0,22,0.00,CLR,,0.08,WeatherDisplay:10.37,2013-12-28 21:19:00,
2013-12-28 16:21:00,45.9,9.1,26.69,South,176,0.0,0.0,22,0.00,CLR,,0.08,WeatherDisplay:10.37,2013-12-28 21:21:00,
2013-12-28 16:24:00,45.3,8.6,26.69,South,176,0.0,0.0,22,0.00,CLR,,0.08,WeatherDisplay:10.37,2013-12-28 21:24:00,
2013-12-28 16:26:00,45.0,8.3,26.69,South,176,0.0,0.0,22,0.00,CLR,,0.08,WeatherDisplay:10.37,2013-12-28 21:26:00,
2013-12-28 16:29:00,44.6,8.0,26.69,South,176,0.0,0.0,22,0.00,CLR,,0.08,WeatherDisplay:10.37,2013-12-28 21:29:00,
2013-12-28 16:30:00,44.6,8.0,0.00,South,176,0.0,0.0,22,0.00,CLR,CLR,0.08,WeatherDisplay:10.37,2013-12-28 21:30:00,
2013-12-28 16:32:00,44.4,8.9,26.69,South,182,0.0,0.0,23,0.00,CLR,,0.08,WeatherDisplay:10.37,2013-12-28 21:32:00,
2013-12-28 16:33:00,44.2,8.7,26.69,South,182,0.0,0.0,23,0.00,CLR,,0.08,WeatherDisplay:10.37,2013-12-28 21:33:00,
2013-12-28 16:34:00,44.1,8.6,26.69,South,182,0.0,0.0,23,0.00,CLR,,0.08,WeatherDisplay:10.37,2013-12-28 21:34:00,
2013-12-28 16:37:00,43.7,8.3,26.69,South,182,0.0,0.0,23,0.00,CLR,,0.08,WeatherDisplay:10.37,2013-12-28 21:37:00,
2013-12-28 16:38:00,43.7,8.3,26.69,South,182,0.0,0.0,23,0.00,CLR,,0.08,WeatherDisplay:10.37,2013-12-28 21:38:00,
2013-12-28 16:39:00,43.5,8.1,26.69,South,182,0.0,0.0,23,0.00,CLR,,0.08,WeatherDisplay:10.37,2013-12-28 21:39:00,
2013-12-28 16:41:00,43.3,8.0,26.69,South,170,0.0,0.0,23,0.00,CLR,,0.08,WeatherDisplay:10.37,2013-12-28 21:41:00,
2013-12-28 16:43:00,43.2,7.8,26.69,South,170,0.0,0.0,23,0.00,CLR,,0.08,WeatherDisplay:10.37,2013-12-28 21:43:00,
2013-12-28 16:44:00,43.0,7.6,26.69,South,170,0.0,0.0,23,0.00,CLR,,0.08,WeatherDisplay:10.37,2013-12-28 21:44:00,
2013-12-28 16:45:00,43.0,7.6,0.00,South,174,0.0,0.0,23,0.00,CLR,CLR,0.08,WeatherDisplay:10.37,2013-12-28 21:45:00,
2013-12-28 16:48:00,42.8,7.5,26.69,South,180,3.5,0.0,23,0.00,CLR,,0.08,WeatherDisplay:10.37,2013-12-28 21:48:00,
2013-12-28 16:50:00,42.6,7.3,0.00,South,175,0.0,4.0,23,0.00,CLR,CLR,0.08,WeatherDisplay:10.37,2013-12-28 21:50:00,
2013-12-28 16:51:00,42.4,7.2,26.69,ESE,120,0.0,0.0,23,0.00,CLR,,0.08,WeatherDisplay:10.37,2013-12-28 21:51:00,
2013-12-28 16:52:00,42.4,7.2,26.69,ESE,120,0.0,0.0,23,0.00,CLR,,0.08,WeatherDisplay:10.37,2013-12-28 21:52:00,
2013-12-28 16:55:00,42.3,7.0,0.00,SSE,154,0.0,0.0,23,0.00,CLR,CLR,0.08,WeatherDisplay:10.37,2013-12-28 21:55:00,
2013-12-28 16:57:00,42.1,6.9,26.69,SSW,208,0.0,0.0,23,0.00,CLR,,0.08,WeatherDisplay:10.37,2013-12-28 21:57:00,
2013-12-28 16:58:00,41.9,6.7,26.69,SSW,208,0.0,0.0,23,0.00,CLR,,0.08,WeatherDisplay:10.37,2013-12-28 21:58:00,
2013-12-28 16:59:00,41.9,6.7,26.69,SSW,208,0.0,0.0,23,0.00,CLR,,0.08,WeatherDisplay:10.37,2013-12-28 21:59:00,
2013-12-28 17:00:00,41.8,6.7,0.00,SSE,166,0.0,0.0,23,0.00,CLR,CLR,0.08,WeatherDisplay:10.37,2013-12-28 22:00:00,
2013-12-28 17:01:00,41.7,6.6,26.69,SSW,208,0.0,0.0,23,0.00,CLR,,0.08,WeatherDisplay:10.37,2013-12-28 22:01:00,
2013-12-28 17:03:00,41.5,6.4,26.69,SSW,208,0.0,0.0,23,0.00,CLR,,0.08,WeatherDisplay:10.37,2013-12-28 22:03:00,
2013-12-28 17:05:00,41.5,6.4,26.69,ENE,70,0.0,0.0,23,0.00,CLR,,0.08,WeatherDisplay:10.37,2013-12-28 22:05:00,
2013-12-28 17:07:00,41.2,6.1,26.69,ENE,76,0.0,0.0,23,0.00,CLR,,0.08,WeatherDisplay:10.37,2013-12-28 22:07:00,
2013-12-28 17:10:00,41.0,6.0,0.00,SSE,148,0.0,0.0,23,0.00,CLR,CLR,0.08,WeatherDisplay:10.37,2013-12-28 22:10:00,
2013-12-28 17:12:00,40.6,5.7,26.69,SSW,192,0.0,0.0,23,0.00,CLR,,0.08,WeatherDisplay:10.37,2013-12-28 22:12:00,
2013-12-28 17:13:00,40.6,5.7,26.69,SSW,192,0.0,0.0,23,0.00,CLR,,0.08,WeatherDisplay:10.37,2013-12-28 22:13:00,
2013-12-28 17:14:00,40.6,5.7,26.69,East,89,0.0,0.0,23,0.00,CLR,,0.08,WeatherDisplay:10.37,2013-12-28 22:14:00,
2013-12-28 17:15:00,40.5,5.5,26.69,East,92,0.0,0.0,23,0.00,CLR,,0.08,WeatherDisplay:10.37,2013-12-28 22:15:00,
2013-12-28 17:18:00,40.3,5.4,26.69,East,92,0.0,0.0,23,0.00,CLR,,0.08,WeatherDisplay:10.37,2013-12-28 22:18:00,
2013-12-28 17:20:00,40.1,5.2,26.69,East,92,0.0,0.0,23,0.00,CLR,,0.08,WeatherDisplay:10.37,2013-12-28 22:20:00,
2013-12-28 17:21:00,40.1,5.2,26.69,East,98,0.0,0.0,23,0.00,CLR,,0.08,WeatherDisplay:10.37,2013-12-28 22:21:00,
2013-12-28 17:22:00,39.9,5.0,26.69,SSW,200,0.0,0.0,23,0.00,CLR,,0.08,WeatherDisplay:10.37,2013-12-28 22:22:00,
2013-12-28 17:23:00,39.9,5.0,26.69,SSW,200,0.0,0.0,23,0.00,CLR,,0.08,WeatherDisplay:10.37,2013-12-28 22:23:00,
2013-12-28 17:26:00,39.9,5.0,26.69,SSW,193,0.0,0.0,23,0.00,CLR,,0.08,WeatherDisplay:10.37,2013-12-28 22:26:00,
2013-12-28 17:27:00,39.9,5.0,26.69,SSW,193,0.0,0.0,23,0.00,CLR,,0.08,WeatherDisplay:10.37,2013-12-28 22:27:00,
2013-12-28 17:30:00,39.9,5.0,26.69,SSW,193,0.0,0.0,23,0.00,CLR,,0.08,WeatherDisplay:10.37,2013-12-28 22:30:00,
2013-12-28 17:31:00,39.9,5.0,26.69,SSW,193,0.0,0.0,23,0.00,CLR,,0.08,WeatherDisplay:10.37,2013-12-28 22:31:00,
2013-12-28 17:34:00,39.9,5.0,26.69,SSW,193,0.0,0.0,23,0.00,CLR,,0.08,WeatherDisplay:10.37,2013-12-28 22:34:00,
2013-12-28 17:35:00,39.9,5.0,26.69,SSW,193,0.0,0.0,23,0.00,CLR,,0.08,WeatherDisplay:10.37,2013-12-28 22:35:00,
2013-12-28 17:37:00,39.7,4.9,26.69,SSW,192,0.0,0.0,23,0.00,CLR,,0.08,WeatherDisplay:10.37,2013-12-28 22:37:00,
2013-12-28 17:39:00,39.7,4.9,26.69,SSW,192,0.0,0.0,23,0.00,CLR,,0.08,WeatherDisplay:10.37,2013-12-28 22:39:00,
2013-12-28 17:40:00,39.7,4.9,26.69,SSW,192,0.0,0.0,23,0.00,CLR,,0.08,WeatherDisplay:10.37,2013-12-28 22:40:00,
2013-12-28 17:41:00,39.6,4.7,26.69,SSW,192,0.0,0.0,23,0.00,CLR,,0.08,WeatherDisplay:10.37,2013-12-28 22:41:00,
2013-12-28 17:42:00,39.6,4.7,26.69,SSW,192,0.0,0.0,23,0.00,CLR,,0.08,WeatherDisplay:10.37,2013-12-28 22:42:00,
2013-12-28 17:43:00,39.6,4.7,26.69,SSW,192,0.0,0.0,23,0.00,CLR,,0.08,WeatherDisplay:10.37,2013-12-28 22:43:00,
2013-12-28 17:44:00,39.4,4.6,26.69,SSW,192,0.0,0.0,23,0.00,CLR,,0.08,WeatherDisplay:10.37,2013-12-28 22:44:00,
2013-12-28 17:47:00,39.4,4.6,26.69,SSW,192,0.0,0.0,23,0.00,CLR,,0.08,WeatherDisplay:10.37,2013-12-28 22:47:00,
2013-12-28 17:48:00,39.2,4.4,26.69,SSW,192,0.0,0.0,23,0.00,CLR,,0.08,WeatherDisplay:10.37,2013-12-28 22:48:00,
2013-12-28 17:49:00,39.2,4.4,26.69,SSW,192,0.0,0.0,23,0.00,CLR,,0.08,WeatherDisplay:10.37,2013-12-28 22:49:00,
2013-12-28 17:50:00,39.2,4.4,0.00,SSW,192,0.0,0.0,23,0.00,CLR,CLR,0.08,WeatherDisplay:10.37,2013-12-28 22:50:00,
2013-12-28 17:51:00,39.2,4.4,26.69,SSW,192,0.0,0.0,23,0.00,CLR,,0.08,WeatherDisplay:10.37,2013-12-28 22:51:00,
2013-12-28 17:53:00,39.2,4.4,26.69,SSW,192,0.0,0.0,23,0.00,CLR,,0.08,WeatherDisplay:10.37,2013-12-28 22:53:00,
2013-12-28 17:54:00,39.2,4.4,26.69,SSW,192,0.0,0.0,23,0.00,CLR,,0.08,WeatherDisplay:10.37,2013-12-28 22:54:00,
2013-12-28 17:55:00,39.2,4.4,26.69,SSW,192,0.0,0.0,23,0.00,CLR,,0.08,WeatherDisplay:10.37,2013-12-28 22:55:00,
2013-12-28 17:58:00,39.0,5.2,26.69,SW,218,0.0,0.0,24,0.00,CLR,,0.08,WeatherDisplay:10.37,2013-12-28 22:58:00,
2013-12-28 17:59:00,39.2,7.1,26.69,SW,218,0.0,0.0,26,0.00,CLR,,0.08,WeatherDisplay:10.37,2013-12-28 22:59:00,
2013-12-28 18:01:00,39.2,7.1,26.69,SW,218,0.0,0.0,26,0.00,CLR,,0.08,WeatherDisplay:10.37,2013-12-28 23:01:00,
2013-12-28 18:03:00,39.2,7.1,26.69,SW,218,0.0,0.0,26,0.00,CLR,,0.08,WeatherDisplay:10.37,2013-12-28 23:03:00,
2013-12-28 18:04:00,39.2,7.1,26.69,SW,218,0.0,0.0,26,0.00,CLR,,0.08,WeatherDisplay:10.37,2013-12-28 23:04:00,
2013-12-28 18:05:00,39.2,7.1,26.69,SW,218,0.0,0.0,26,0.00,CLR,,0.08,WeatherDisplay:10.37,2013-12-28 23:05:00,
2013-12-28 18:06:00,39.2,7.1,26.69,SW,218,0.0,0.0,26,0.00,CLR,,0.08,WeatherDisplay:10.37,2013-12-28 23:06:00,
2013-12-28 18:08:00,39.0,5.2,26.69,SW,218,0.0,0.0,24,0.00,CLR,,0.08,WeatherDisplay:10.37,2013-12-28 23:08:00,
2013-12-28 18:10:00,38.9,6.9,0.00,SW,218,0.0,0.0,26,0.00,CLR,CLR,0.08,WeatherDisplay:10.37,2013-12-28 23:10:00,
2013-12-28 18:11:00,38.8,6.8,26.69,SW,218,0.0,0.0,26,0.00,CLR,,0.08,WeatherDisplay:10.37,2013-12-28 23:11:00,
2013-12-28 18:12:00,38.8,6.8,26.69,SW,218,0.0,0.0,26,0.00,CLR,,0.08,WeatherDisplay:10.37,2013-12-28 23:12:00,
2013-12-28 18:14:00,38.8,6.8,26.69,SW,218,0.0,0.0,26,0.00,CLR,,0.08,WeatherDisplay:10.37,2013-12-28 23:14:00,
2013-12-28 18:16:00,38.7,6.7,26.69,SW,218,0.0,0.0,26,0.00,CLR,,0.08,WeatherDisplay:10.37,2013-12-28 23:16:00,
2013-12-28 18:18:00,38.7,6.7,26.69,SW,218,0.0,0.0,26,0.00,CLR,,0.08,WeatherDisplay:10.37,2013-12-28 23:18:00,
2013-12-28 18:19:00,38.7,6.7,26.69,SW,218,0.0,0.0,26,0.00,CLR,,0.08,WeatherDisplay:10.37,2013-12-28 23:19:00,
2013-12-28 18:20:00,38.8,6.8,26.69,SW,218,0.0,0.0,26,0.00,CLR,,0.08,WeatherDisplay:10.37,2013-12-28 23:20:00,
2013-12-28 18:23:00,38.8,6.8,26.69,SSE,161,2.3,0.0,26,0.00,CLR,,0.08,WeatherDisplay:10.37,2013-12-28 23:23:00,
2013-12-28 18:24:00,38.8,6.8,26.69,SSE,161,0.0,0.0,26,0.00,CLR,,0.08,WeatherDisplay:10.37,2013-12-28 23:24:00,
2013-12-28 18:25:00,38.8,6.8,26.69,SSE,161,0.0,0.0,26,0.00,CLR,,0.08,WeatherDisplay:10.37,2013-12-28 23:25:00,
2013-12-28 18:27:00,38.8,6.8,26.69,WSW,254,0.0,0.0,26,0.00,CLR,,0.08,WeatherDisplay:10.37,2013-12-28 23:27:00,
2013-12-28 18:28:00,38.8,6.8,26.69,South,182,0.0,0.0,26,0.00,CLR,,0.08,WeatherDisplay:10.37,2013-12-28 23:28:00,
2013-12-28 18:29:00,39.0,7.0,26.69,South,181,0.0,0.0,26,0.00,CLR,,0.08,WeatherDisplay:10.37,2013-12-28 23:29:00,
2013-12-28 18:30:00,39.0,7.0,0.00,South,180,0.0,0.0,26,0.00,CLR,CLR,0.08,WeatherDisplay:10.37,2013-12-28 23:30:00,
2013-12-28 18:32:00,39.0,7.0,26.69,South,181,0.0,0.0,26,0.00,CLR,,0.08,WeatherDisplay:10.37,2013-12-28 23:32:00,
2013-12-28 18:33:00,39.2,7.1,26.69,South,181,0.0,0.0,26,0.00,CLR,,0.08,WeatherDisplay:10.37,2013-12-28 23:33:00,
2013-12-28 18:35:00,39.2,7.1,26.69,SW,214,2.7,0.0,26,0.00,CLR,,0.08,WeatherDisplay:10.37,2013-12-28 23:35:00,
2013-12-28 18:36:00,39.2,7.1,26.69,SW,214,2.3,0.0,26,0.00,CLR,,0.08,WeatherDisplay:10.37,2013-12-28 23:36:00,
2013-12-28 18:38:00,39.2,7.1,26.69,SW,214,0.0,0.0,26,0.00,CLR,,0.08,WeatherDisplay:10.37,2013-12-28 23:38:00,
2013-12-28 18:39:00,39.2,7.1,26.69,SW,214,0.0,0.0,26,0.00,CLR,,0.08,WeatherDisplay:10.37,2013-12-28 23:39:00,
2013-12-28 18:41:00,39.2,7.1,26.69,SW,214,0.0,0.0,26,0.00,CLR,,0.08,WeatherDisplay:10.37,2013-12-28 23:41:00,
2013-12-28 18:45:00,39.0,7.0,26.69,South,185,0.0,0.0,26,0.00,CLR,,0.08,WeatherDisplay:10.37,2013-12-28 23:45:00,
2013-12-28 18:46:00,38.8,6.8,26.69,SW,216,0.0,0.0,26,0.00,CLR,,0.08,WeatherDisplay:10.37,2013-12-28 23:46:00,
2013-12-28 18:47:00,38.8,6.8,26.69,SSW,203,2.3,0.0,26,0.00,CLR,,0.08,WeatherDisplay:10.37,2013-12-28 23:47:00,
2013-12-28 18:50:00,38.8,6.8,0.00,SSW,205,0.0,3.0,26,0.00,CLR,CLR,0.08,WeatherDisplay:10.37,2013-12-28 23:50:00,
2013-12-28 18:51:00,38.8,6.8,26.69,SSW,205,0.0,0.0,26,0.00,CLR,,0.08,WeatherDisplay:10.37,2013-12-28 23:51:00,
2013-12-28 18:52:00,38.8,6.8,26.69,South,176,0.0,0.0,26,0.00,CLR,,0.08,WeatherDisplay:10.37,2013-12-28 23:52:00,
2013-12-28 18:55:00,38.7,6.7,26.69,SW,215,0.0,0.0,26,0.00,CLR,,0.08,WeatherDisplay:10.37,2013-12-28 23:55:00,
2013-12-28 18:57:00,38.7,6.7,26.69,WSW,240,0.0,0.0,26,0.00,CLR,,0.08,WeatherDisplay:10.37,2013-12-28 23:57:00,
2013-12-28 18:58:00,38.7,6.7,26.69,WSW,240,0.0,0.0,26,0.00,CLR,,0.08,WeatherDisplay:10.37,2013-12-28 23:58:00,
2013-12-28 18:59:00,38.7,6.7,26.69,WSW,240,0.0,0.0,26,0.00,CLR,,0.08,WeatherDisplay:10.37,2013-12-28 23:59:00,
2013-12-28 19:00:00,38.7,6.7,26.69,WSW,240,0.0,0.0,26,0.00,CLR,,0.08,WeatherDisplay:10.37,2013-12-29 00:00:00,
2013-12-28 19:02:00,38.5,6.5,26.69,SSE,150,0.0,0.0,26,0.00,CLR,,0.08,WeatherDisplay:10.37,2013-12-29 00:02:00,
2013-12-28 19:03:00,38.5,6.5,26.69,South,169,0.0,0.0,26,0.00,CLR,,0.08,WeatherDisplay:10.37,2013-12-29 00:03:00,
2013-12-28 19:04:00,38.5,6.5,26.69,South,169,0.0,0.0,26,0.00,CLR,,0.08,WeatherDisplay:10.37,2013-12-29 00:04:00,
2013-12-28 19:05:00,38.5,6.5,0.00,SSW,204,0.0,0.0,26,0.00,CLR,CLR,0.08,WeatherDisplay:10.37,2013-12-29 00:05:00,
2013-12-28 19:07:00,38.5,6.5,26.69,WSW,249,0.0,0.0,26,0.00,CLR,,0.08,WeatherDisplay:10.37,2013-12-29 00:07:00,
2013-12-28 19:10:00,38.5,6.5,0.00,SSW,194,0.0,0.0,26,0.00,CLR,CLR,0.08,WeatherDisplay:10.37,2013-12-29 00:10:00,
2013-12-28 19:11:00,38.5,6.5,26.69,South,190,0.0,0.0,26,0.00,CLR,,0.08,WeatherDisplay:10.37,2013-12-29 00:11:00,
2013-12-28 19:12:00,38.5,6.5,26.69,South,190,0.0,0.0,26,0.00,CLR,,0.08,WeatherDisplay:10.37,2013-12-29 00:12:00,
2013-12-28 19:13:00,38.5,6.5,26.69,South,190,0.0,0.0,26,0.00,CLR,,0.08,WeatherDisplay:10.37,2013-12-29 00:13:00,
2013-12-28 19:15:00,38.5,6.5,26.69,South,190,0.0,0.0,26,0.00,CLR,,0.08,WeatherDisplay:10.37,2013-12-29 00:15:00,
2013-12-28 19:16:00,38.5,6.5,26.69,South,190,0.0,0.0,26,0.00,CLR,,0.08,WeatherDisplay:10.37,2013-12-29 00:16:00,
2013-12-28 19:17:00,38.5,8.9,26.69,SSW,211,0.0,0.0,29,0.00,CLR,,0.08,WeatherDisplay:10.37,2013-12-29 00:17:00,
2013-12-28 19:18:00,38.7,9.1,26.69,SSW,211,0.0,0.0,29,0.00,CLR,,0.08,WeatherDisplay:10.37,2013-12-29 00:18:00,
2013-12-28 19:21:00,38.7,6.7,26.69,SSW,202,0.0,0.0,26,0.00,CLR,,0.08,WeatherDisplay:10.37,2013-12-29 00:21:00,
2013-12-28 19:22:00,38.7,6.7,26.69,SSW,202,0.0,0.0,26,0.00,CLR,,0.08,WeatherDisplay:10.37,2013-12-29 00:22:00,
2013-12-28 19:23:00,38.7,6.7,26.69,WSW,247,0.0,0.0,26,0.00,CLR,,0.08,WeatherDisplay:10.37,2013-12-29 00:23:00,
2013-12-28 19:26:00,38.8,9.2,26.69,SSW,204,3.5,0.0,29,0.00,CLR,,0.08,WeatherDisplay:10.37,2013-12-29 00:26:00,
2013-12-28 19:27:00,38.8,6.8,26.69,SSW,204,0.0,0.0,26,0.00,CLR,,0.08,WeatherDisplay:10.37,2013-12-29 00:27:00,
2013-12-28 19:28:00,38.8,6.8,26.69,SSW,204,0.0,0.0,26,0.00,CLR,,0.08,WeatherDisplay:10.37,2013-12-29 00:28:00,
2013-12-28 19:29:00,38.8,6.8,26.69,SSW,204,0.0,0.0,26,0.00,CLR,,0.08,WeatherDisplay:10.37,2013-12-29 00:29:00,
2013-12-28 19:31:00,38.8,6.8,26.69,SSW,204,0.0,0.0,26,0.00,CLR,,0.08,WeatherDisplay:10.37,2013-12-29 00:31:00,
2013-12-28 19:34:00,38.8,6.8,26.69,SSW,204,0.0,0.0,26,0.00,CLR,,0.08,WeatherDisplay:10.37,2013-12-29 00:34:00,
2013-12-28 19:35:00,38.8,6.8,0.00,SSW,204,0.0,0.0,26,0.00,CLR,CLR,0.08,WeatherDisplay:10.37,2013-12-29 00:35:00,
2013-12-28 19:36:00,38.8,6.8,26.69,SSW,204,0.0,0.0,26,0.00,CLR,,0.08,WeatherDisplay:10.37,2013-12-29 00:36:00,
2013-12-28 19:37:00,38.8,6.8,26.69,ESE,119,0.0,0.0,26,0.00,CLR,,0.08,WeatherDisplay:10.37,2013-12-29 00:37:00,
2013-12-28 19:39:00,38.8,6.8,26.69,South,191,0.0,0.0,26,0.00,CLR,,0.08,WeatherDisplay:10.37,2013-12-29 00:39:00,
2013-12-28 19:40:00,38.8,6.8,26.69,South,191,0.0,0.0,26,0.00,CLR,,0.08,WeatherDisplay:10.37,2013-12-29 00:40:00,
2013-12-28 19:41:00,38.8,6.8,26.69,SSE,166,0.0,0.0,26,0.00,CLR,,0.08,WeatherDisplay:10.37,2013-12-29 00:41:00,
2013-12-28 19:42:00,38.8,6.8,26.69,SSE,165,3.5,0.0,26,0.00,CLR,,0.08,WeatherDisplay:10.37,2013-12-29 00:42:00,
2013-12-28 19:44:00,38.8,6.8,26.69,SSE,166,0.0,0.0,26,0.00,CLR,,0.08,WeatherDisplay:10.37,2013-12-29 00:44:00,
2013-12-28 19:45:00,38.8,6.8,0.00,South,180,0.0,3.0,26,0.00,CLR,CLR,0.08,WeatherDisplay:10.37,2013-12-29 00:45:00,
2013-12-28 19:46:00,38.8,6.8,26.69,SW,229,0.0,0.0,26,0.00,CLR,,0.08,WeatherDisplay:10.37,2013-12-29 00:46:00,
2013-12-28 19:48:00,38.7,6.7,26.69,SE,137,5.8,5.8,26,0.00,CLR,,0.08,WeatherDisplay:10.37,2013-12-29 00:48:00,
2013-12-28 19:49:00,38.7,6.7,26.69,SE,137,0.0,0.0,26,0.00,CLR,,0.08,WeatherDisplay:10.37,2013-12-29 00:49:00,
2013-12-28 19:50:00,38.7,6.7,26.69,SE,137,0.0,0.0,26,0.00,CLR,,0.08,WeatherDisplay:10.37,2013-12-29 00:50:00,
2013-12-28 19:51:00,38.7,6.7,26.69,SE,137,0.0,0.0,26,0.00,CLR,,0.08,WeatherDisplay:10.37,2013-12-29 00:51:00,
2013-12-28 19:54:00,38.5,6.5,26.69,SE,137,0.0,0.0,26,0.00,CLR,,0.08,WeatherDisplay:10.37,2013-12-29 00:54:00,
2013-12-28 19:55:00,38.5,6.5,26.69,East,90,0.0,0.0,26,0.00,CLR,,0.08,WeatherDisplay:10.37,2013-12-29 00:55:00,
2013-12-28 19:58:00,38.5,6.5,26.69,SSE,150,0.0,0.0,26,0.00,CLR,,0.08,WeatherDisplay:10.37,2013-12-29 00:58:00,
2013-12-28 19:59:00,38.5,6.5,26.69,SSE,150,0.0,0.0,26,0.00,CLR,,0.08,WeatherDisplay:10.37,2013-12-29 00:59:00,
2013-12-28 20:00:00,38.5,6.5,26.69,SSE,150,0.0,0.0,26,0.00,CLR,,0.08,WeatherDisplay:10.37,2013-12-29 01:00:00,
2013-12-28 20:01:00,38.5,6.5,26.69,SSE,150,0.0,0.0,26,0.00,CLR,,0.08,WeatherDisplay:10.37,2013-12-29 01:01:00,
2013-12-28 20:04:00,38.5,6.5,26.69,SSE,150,0.0,0.0,26,0.00,CLR,,0.08,WeatherDisplay:10.37,2013-12-29 01:04:00,
2013-12-28 20:05:00,38.5,6.5,0.00,SSE,149,0.0,0.0,26,0.00,CLR,CLR,0.08,WeatherDisplay:10.37,2013-12-29 01:05:00,
2013-12-28 20:06:00,38.5,6.5,26.69,SSE,150,0.0,0.0,26,0.00,CLR,,0.08,WeatherDisplay:10.37,2013-12-29 01:06:00,
2013-12-28 20:09:00,38.5,6.5,26.69,North,1,0.0,0.0,26,0.00,CLR,,0.08,WeatherDisplay:10.37,2013-12-29 01:09:00,
2013-12-28 20:10:00,38.5,6.5,0.00,SSE,159,0.0,3.0,26,0.00,CLR,CLR,0.08,WeatherDisplay:10.37,2013-12-29 01:10:00,
2013-12-28 20:11:00,38.5,6.5,26.69,North,1,0.0,0.0,26,0.00,CLR,,0.08,WeatherDisplay:10.37,2013-12-29 01:11:00,
2013-12-28 20:12:00,38.5,6.5,26.69,North,1,0.0,0.0,26,0.00,CLR,,0.08,WeatherDisplay:10.37,2013-12-29 01:12:00,
2013-12-28 20:14:00,38.5,6.5,26.69,North,2,0.0,0.0,26,0.00,CLR,,0.08,WeatherDisplay:10.37,2013-12-29 01:14:00,
2013-12-28 20:15:00,38.5,6.5,26.69,North,2,0.0,0.0,26,0.00,CLR,,0.08,WeatherDisplay:10.37,2013-12-29 01:15:00,
2013-12-28 20:16:00,38.5,6.5,26.69,North,2,0.0,0.0,26,0.00,CLR,,0.08,WeatherDisplay:10.37,2013-12-29 01:16:00,
2013-12-28 20:17:00,38.5,6.5,26.69,North,2,0.0,0.0,26,0.00,CLR,,0.08,WeatherDisplay:10.37,2013-12-29 01:17:00,
2013-12-28 20:20:00,38.5,6.5,0.00,North,353,0.0,0.0,26,0.00,CLR,CLR,0.08,WeatherDisplay:10.37,2013-12-29 01:20:00,
2013-12-28 20:21:00,38.5,6.5,26.69,NW,313,0.0,0.0,26,0.00,CLR,,0.08,WeatherDisplay:10.37,2013-12-29 01:21:00,
2013-12-28 20:22:00,38.5,6.5,26.69,WNW,292,0.0,0.0,26,0.00,CLR,,0.08,WeatherDisplay:10.37,2013-12-29 01:22:00,
2013-12-28 20:23:00,38.5,6.5,26.69,WNW,292,0.0,0.0,26,0.00,CLR,,0.08,WeatherDisplay:10.37,2013-12-29 01:23:00,
2013-12-28 20:24:00,38.5,6.5,26.69,WSW,243,0.0,0.0,26,0.00,CLR,,0.08,WeatherDisplay:10.37,2013-12-29 01:24:00,
2013-12-28 20:27:00,38.5,6.5,26.69,WSW,243,0.0,0.0,26,0.00,CLR,,0.08,WeatherDisplay:10.37,2013-12-29 01:27:00,
2013-12-28 20:29:00,38.5,6.5,26.69,WSW,248,0.0,0.0,26,0.00,CLR,,0.08,WeatherDisplay:10.37,2013-12-29 01:29:00,
2013-12-28 20:31:00,38.7,6.7,26.69,WSW,248,0.0,0.0,26,0.00,CLR,,0.08,WeatherDisplay:10.37,2013-12-29 01:31:00,
2013-12-28 20:32:00,38.7,6.7,26.69,WSW,248,0.0,0.0,26,0.00,CLR,,0.08,WeatherDisplay:10.37,2013-12-29 01:32:00,
2013-12-28 20:33:00,38.7,6.7,26.69,WSW,248,0.0,0.0,26,0.00,CLR,,0.08,WeatherDisplay:10.37,2013-12-29 01:33:00,
2013-12-28 20:34:00,38.7,6.7,26.69,WSW,248,0.0,0.0,26,0.00,CLR,,0.08,WeatherDisplay:10.37,2013-12-29 01:34:00,
2013-12-28 20:35:00,38.7,6.7,26.69,WSW,248,0.0,0.0,26,0.00,CLR,,0.08,WeatherDisplay:10.37,2013-12-29 01:35:00,
2013-12-28 20:36:00,38.7,6.7,26.69,WSW,248,0.0,0.0,26,0.00,CLR,,0.08,WeatherDisplay:10.37,2013-12-29 01:36:00,
2013-12-28 20:39:00,38.7,6.7,26.69,SW,231,0.0,0.0,26,0.00,CLR,,0.08,WeatherDisplay:10.37,2013-12-29 01:39:00,
2013-12-28 20:40:00,38.7,6.7,26.69,SW,231,0.0,0.0,26,0.00,CLR,,0.08,WeatherDisplay:10.37,2013-12-29 01:40:00,
2013-12-28 20:41:00,38.5,6.5,26.69,SW,231,0.0,0.0,26,0.00,CLR,,0.08,WeatherDisplay:10.37,2013-12-29 01:41:00,
2013-12-28 20:42:00,38.5,6.5,26.69,SW,231,0.0,0.0,26,0.00,CLR,,0.08,WeatherDisplay:10.37,2013-12-29 01:42:00,
2013-12-28 20:45:00,38.5,6.5,0.00,SW,234,0.0,0.0,26,0.00,CLR,CLR,0.08,WeatherDisplay:10.37,2013-12-29 01:45:00,
2013-12-28 20:46:00,38.5,6.5,26.69,SW,221,3.5,3.5,26,0.00,CLR,,0.08,WeatherDisplay:10.37,2013-12-29 01:46:00,
2013-12-28 20:47:00,38.5,6.5,26.69,SW,221,0.0,0.0,26,0.00,CLR,,0.08,WeatherDisplay:10.37,2013-12-29 01:47:00,
2013-12-28 20:48:00,38.5,6.5,26.69,SW,221,0.0,0.0,26,0.00,CLR,,0.08,WeatherDisplay:10.37,2013-12-29 01:48:00,
2013-12-28 20:49:00,38.5,6.5,26.69,SW,221,0.0,0.0,26,0.00,CLR,,0.08,WeatherDisplay:10.37,2013-12-29 01:49:00,
2013-12-28 20:50:00,38.5,6.5,26.69,SW,221,0.0,0.0,26,0.00,CLR,,0.08,WeatherDisplay:10.37,2013-12-29 01:50:00,
2013-12-28 20:52:00,38.5,6.5,26.69,SW,221,0.0,0.0,26,0.00,CLR,,0.08,WeatherDisplay:10.37,2013-12-29 01:52:00,
2013-12-28 20:54:00,38.5,6.5,26.69,SW,219,0.0,0.0,26,0.00,CLR,,0.08,WeatherDisplay:10.37,2013-12-29 01:54:00,
2013-12-28 20:55:00,38.5,6.5,26.69,SW,232,0.0,0.0,26,0.00,CLR,,0.08,WeatherDisplay:10.37,2013-12-29 01:55:00,
2013-12-28 20:57:00,38.7,6.7,26.69,SW,223,0.0,0.0,26,0.00,CLR,,0.08,WeatherDisplay:10.37,2013-12-29 01:57:00,
2013-12-28 20:58:00,38.7,6.7,26.69,SW,223,0.0,0.0,26,0.00,CLR,,0.08,WeatherDisplay:10.37,2013-12-29 01:58:00,
2013-12-28 20:59:00,38.7,6.7,26.69,SW,223,0.0,0.0,26,0.00,CLR,,0.08,WeatherDisplay:10.37,2013-12-29 01:59:00,
2013-12-28 21:01:00,38.7,6.7,26.69,SW,231,0.0,0.0,26,0.00,CLR,,0.08,WeatherDisplay:10.37,2013-12-29 02:01:00,
2013-12-28 21:04:00,38.7,6.7,26.69,WSW,250,0.0,0.0,26,0.00,CLR,,0.08,WeatherDisplay:10.37,2013-12-29 02:04:00,
2013-12-28 21:05:00,38.7,6.7,26.69,WSW,249,0.0,0.0,26,0.00,CLR,,0.08,WeatherDisplay:10.37,2013-12-29 02:05:00,
2013-12-28 21:06:00,38.7,6.7,26.69,WSW,249,0.0,0.0,26,0.00,CLR,,0.08,WeatherDisplay:10.37,2013-12-29 02:06:00,
2013-12-28 21:08:00,38.7,6.7,26.69,WSW,249,0.0,0.0,26,0.00,CLR,,0.08,WeatherDisplay:10.37,2013-12-29 02:08:00,
2013-12-28 21:10:00,38.7,6.7,26.69,WSW,249,0.0,0.0,26,0.00,CLR,,0.08,WeatherDisplay:10.37,2013-12-29 02:10:00,
2013-12-28 21:11:00,38.5,6.5,26.69,WSW,249,0.0,0.0,26,0.00,CLR,,0.08,WeatherDisplay:10.37,2013-12-29 02:11:00,
2013-12-28 21:14:00,38.5,6.5,26.69,WSW,249,0.0,0.0,26,0.00,CLR,,0.08,WeatherDisplay:10.37,2013-12-29 02:14:00,
2013-12-28 21:15:00,38.5,6.5,26.69,WSW,245,0.0,0.0,26,0.00,CLR,,0.08,WeatherDisplay:10.37,2013-12-29 02:15:00,
2013-12-28 21:17:00,38.5,6.5,26.69,SW,235,0.0,0.0,26,0.00,CLR,,0.08,WeatherDisplay:10.37,2013-12-29 02:17:00,
2013-12-28 21:18:00,38.7,6.7,26.69,SW,235,0.0,0.0,26,0.00,CLR,,0.08,WeatherDisplay:10.37,2013-12-29 02:18:00,
2013-12-28 21:20:00,38.7,6.7,26.69,SW,235,0.0,0.0,26,0.00,CLR,,0.08,WeatherDisplay:10.37,2013-12-29 02:20:00,
2013-12-28 21:21:00,38.5,6.5,26.69,WSW,247,0.0,0.0,26,0.00,CLR,,0.08,WeatherDisplay:10.37,2013-12-29 02:21:00,
2013-12-28 21:22:00,38.5,6.5,26.69,WSW,249,0.0,0.0,26,0.00,CLR,,0.08,WeatherDisplay:10.37,2013-12-29 02:22:00,
2013-12-28 21:23:00,38.7,6.7,26.69,WSW,249,0.0,0.0,26,0.00,CLR,,0.08,WeatherDisplay:10.37,2013-12-29 02:23:00,
2013-12-28 21:24:00,38.5,6.5,26.69,SW,234,0.0,0.0,26,0.00,CLR,,0.08,WeatherDisplay:10.37,2013-12-29 02:24:00,
2013-12-28 21:25:00,38.5,6.5,26.69,SSW,195,0.0,0.0,26,0.00,CLR,,0.08,WeatherDisplay:10.37,2013-12-29 02:25:00,
2013-12-28 21:29:00,38.5,6.5,26.69,WSW,239,0.0,0.0,26,0.00,CLR,,0.08,WeatherDisplay:10.37,2013-12-29 02:29:00,
2013-12-28 21:30:00,38.7,6.7,26.69,WSW,239,0.0,0.0,26,0.00,CLR,,0.08,WeatherDisplay:10.37,2013-12-29 02:30:00,
2013-12-28 21:31:00,38.7,6.7,26.69,WSW,239,0.0,0.0,26,0.00,CLR,,0.08,WeatherDisplay:10.37,2013-12-29 02:31:00,
2013-12-28 21:33:00,38.7,6.7,26.69,WSW,239,0.0,0.0,26,0.00,CLR,,0.08,WeatherDisplay:10.37,2013-12-29 02:33:00,
2013-12-28 21:35:00,38.7,6.7,26.69,WSW,239,0.0,0.0,26,0.00,CLR,,0.08,WeatherDisplay:10.37,2013-12-29 02:35:00,
2013-12-28 21:36:00,38.7,6.7,26.69,WSW,239,0.0,0.0,26,0.00,CLR,,0.08,WeatherDisplay:10.37,2013-12-29 02:36:00,
2013-12-28 21:38:00,38.7,6.7,26.69,WSW,239,0.0,0.0,26,0.00,CLR,,0.08,WeatherDisplay:10.37,2013-12-29 02:38:00,
2013-12-28 21:40:00,38.5,6.5,0.00,WSW,237,0.0,0.0,26,0.00,CLR,CLR,0.08,WeatherDisplay:10.37,2013-12-29 02:40:00,
2013-12-28 21:42:00,38.5,6.5,26.69,SW,221,0.0,0.0,26,0.00,CLR,,0.08,WeatherDisplay:10.37,2013-12-29 02:42:00,
2013-12-28 21:43:00,38.5,6.5,26.69,SE,145,0.0,0.0,26,0.00,CLR,,0.08,WeatherDisplay:10.37,2013-12-29 02:43:00,
2013-12-28 21:44:00,38.5,6.5,26.69,SE,144,0.0,0.0,26,0.00,CLR,,0.08,WeatherDisplay:10.37,2013-12-29 02:44:00,
2013-12-28 21:45:00,38.5,6.5,0.00,SSW,208,0.0,0.0,26,0.00,CLR,CLR,0.08,WeatherDisplay:10.37,2013-12-29 02:45:00,
2013-12-28 21:48:00,38.3,6.4,26.69,SSW,201,0.0,0.0,26,0.00,CLR,,0.08,WeatherDisplay:10.37,2013-12-29 02:48:00,
2013-12-28 21:50:00,38.1,6.2,26.69,SSW,199,0.0,0.0,26,0.00,CLR,,0.08,WeatherDisplay:10.37,2013-12-29 02:50:00,
2013-12-28 21:51:00,38.1,6.2,26.69,SSW,199,0.0,0.0,26,0.00,CLR,,0.08,WeatherDisplay:10.37,2013-12-29 02:51:00,
2013-12-28 21:53:00,38.3,6.4,26.69,SSW,199,0.0,0.0,26,0.00,CLR,,0.08,WeatherDisplay:10.37,2013-12-29 02:53:00,
2013-12-28 21:55:00,38.3,6.4,26.69,SSW,199,0.0,0.0,26,0.00,CLR,,0.08,WeatherDisplay:10.37,2013-12-29 02:55:00,
2013-12-28 21:57:00,38.3,6.4,26.69,SSW,199,0.0,0.0,26,0.00,CLR,,0.08,WeatherDisplay:10.37,2013-12-29 02:57:00,
2013-12-28 21:59:00,38.3,6.4,26.69,South,180,0.0,0.0,26,0.00,CLR,,0.08,WeatherDisplay:10.37,2013-12-29 02:59:00,
2013-12-28 22:00:00,38.3,6.4,26.69,South,180,0.0,0.0,26,0.00,CLR,,0.08,WeatherDisplay:10.37,2013-12-29 03:00:00,
2013-12-28 22:02:00,38.3,6.4,26.69,WSW,237,0.0,0.0,26,0.00,CLR,,0.08,WeatherDisplay:10.37,2013-12-29 03:02:00,
2013-12-28 22:04:00,38.3,6.4,26.69,SW,236,0.0,0.0,26,0.00,CLR,,0.08,WeatherDisplay:10.37,2013-12-29 03:04:00,
2013-12-28 22:05:00,38.3,6.4,0.00,SSW,203,0.0,0.0,26,0.00,CLR,CLR,0.08,WeatherDisplay:10.37,2013-12-29 03:05:00,
2013-12-28 22:06:00,38.3,6.4,26.69,SW,236,0.0,0.0,26,0.00,CLR,,0.08,WeatherDisplay:10.37,2013-12-29 03:06:00,
2013-12-28 22:07:00,38.3,6.4,26.69,SW,236,0.0,0.0,26,0.00,CLR,,0.08,WeatherDisplay:10.37,2013-12-29 03:07:00,
2013-12-28 22:09:00,38.5,6.5,26.69,SW,236,0.0,0.0,26,0.00,CLR,,0.08,WeatherDisplay:10.37,2013-12-29 03:09:00,
2013-12-28 22:10:00,38.5,6.5,26.69,SW,236,0.0,0.0,26,0.00,CLR,,0.08,WeatherDisplay:10.37,2013-12-29 03:10:00,
2013-12-28 22:11:00,38.3,6.4,26.69,ESE,105,2.3,0.0,26,0.00,CLR,,0.08,WeatherDisplay:10.37,2013-12-29 03:11:00,
2013-12-28 22:12:00,38.3,6.4,26.69,ESE,120,3.5,3.5,26,0.00,CLR,,0.08,WeatherDisplay:10.37,2013-12-29 03:12:00,
2013-12-28 22:14:00,38.5,6.5,26.69,ESE,118,0.0,0.0,26,0.00,CLR,,0.08,WeatherDisplay:10.37,2013-12-29 03:14:00,
2013-12-28 22:15:00,38.4,6.5,0.00,South,176,0.0,4.0,26,0.00,CLR,CLR,0.08,WeatherDisplay:10.37,2013-12-29 03:15:00,
2013-12-28 22:16:00,38.3,6.4,26.69,ESE,118,0.0,0.0,26,0.00,CLR,,0.08,WeatherDisplay:10.37,2013-12-29 03:16:00,
2013-12-28 22:18:00,38.3,6.4,26.69,SE,126,0.0,0.0,26,0.00,CLR,,0.08,WeatherDisplay:10.37,2013-12-29 03:18:00,
2013-12-28 22:20:00,38.2,6.3,0.00,ESE,116,0.0,0.0,26,0.00,CLR,CLR,0.08,WeatherDisplay:10.37,2013-12-29 03:20:00,
2013-12-28 22:23:00,38.1,6.2,26.69,SE,126,0.0,0.0,26,0.00,CLR,,0.08,WeatherDisplay:10.37,2013-12-29 03:23:00,
2013-12-28 22:24:00,38.1,6.2,26.69,SE,126,0.0,0.0,26,0.00,CLR,,0.08,WeatherDisplay:10.37,2013-12-29 03:24:00,
2013-12-28 22:25:00,38.1,6.2,26.69,SE,126,0.0,0.0,26,0.00,CLR,,0.08,WeatherDisplay:10.37,2013-12-29 03:25:00,
2013-12-28 22:26:00,38.1,6.2,26.69,SW,230,3.5,0.0,26,0.00,CLR,,0.08,WeatherDisplay:10.37,2013-12-29 03:26:00,
2013-12-28 22:27:00,38.1,6.2,26.69,SSW,196,3.5,3.5,26,0.00,CLR,,0.08,WeatherDisplay:10.37,2013-12-29 03:27:00,
2013-12-28 22:28:00,38.1,6.2,26.69,West,266,0.0,0.0,26,0.00,CLR,,0.08,WeatherDisplay:10.37,2013-12-29 03:28:00,
2013-12-28 22:29:00,38.3,6.4,26.69,SW,236,0.0,0.0,26,0.00,CLR,,0.08,WeatherDisplay:10.37,2013-12-29 03:29:00,
2013-12-28 22:30:00,38.5,6.5,26.69,SW,236,0.0,0.0,26,0.00,CLR,,0.08,WeatherDisplay:10.37,2013-12-29 03:30:00,
2013-12-28 22:31:00,38.5,6.5,26.69,SW,236,0.0,0.0,26,0.00,CLR,,0.08,WeatherDisplay:10.37,2013-12-29 03:31:00,
2013-12-28 22:32:00,38.5,6.5,26.69,SW,236,0.0,0.0,26,0.00,CLR,,0.08,WeatherDisplay:10.37,2013-12-29 03:32:00,
2013-12-28 22:33:00,38.5,6.5,26.69,WSW,246,0.0,0.0,26,0.00,CLR,,0.08,WeatherDisplay:10.37,2013-12-29 03:33:00,
2013-12-28 22:34:00,38.5,6.5,26.69,WSW,244,5.8,5.8,26,0.00,CLR,,0.08,WeatherDisplay:10.37,2013-12-29 03:34:00,
2013-12-28 22:35:00,38.5,6.5,0.00,WSW,239,2.0,6.0,26,0.00,CLR,CLR,0.08,WeatherDisplay:10.37,2013-12-29 03:35:00,
2013-12-28 22:36:00,38.7,6.7,26.69,West,272,0.0,0.0,26,0.00,CLR,,0.08,WeatherDisplay:10.37,2013-12-29 03:36:00,
2013-12-28 22:37:00,38.7,6.7,26.69,SW,232,0.0,0.0,26,0.00,CLR,,0.08,WeatherDisplay:10.37,2013-12-29 03:37:00,
2013-12-28 22:38:00,38.7,6.7,26.69,WNW,303,0.0,0.0,26,0.00,CLR,,0.08,WeatherDisplay:10.37,2013-12-29 03:38:00,
2013-12-28 22:40:00,38.7,6.7,0.00,SW,233,0.0,0.0,26,0.00,CLR,CLR,0.08,WeatherDisplay:10.37,2013-12-29 03:40:00,
2013-12-28 22:42:00,38.7,6.7,26.69,ESE,120,0.0,0.0,26,0.00,CLR,,0.08,WeatherDisplay:10.37,2013-12-29 03:42:00,
2013-12-28 22:44:00,38.7,6.7,26.69,SW,231,0.0,0.0,26,0.00,CLR,,0.08,WeatherDisplay:10.37,2013-12-29 03:44:00,
2013-12-28 22:47:00,38.5,6.5,26.69,SW,231,0.0,0.0,26,0.00,CLR,,0.08,WeatherDisplay:10.37,2013-12-29 03:47:00,
2013-12-28 22:49:00,38.5,6.5,26.69,SW,231,0.0,0.0,26,0.00,CLR,,0.08,WeatherDisplay:10.37,2013-12-29 03:49:00,
2013-12-28 22:50:00,38.4,6.5,0.00,SSW,211,0.0,0.0,26,0.00,CLR,CLR,0.08,WeatherDisplay:10.37,2013-12-29 03:50:00,
2013-12-28 22:52:00,38.1,6.2,26.69,SW,231,0.0,0.0,26,0.00,CLR,,0.08,WeatherDisplay:10.37,2013-12-29 03:52:00,
2013-12-28 22:54:00,38.1,6.2,26.69,SW,231,0.0,0.0,26,0.00,CLR,,0.08,WeatherDisplay:10.37,2013-12-29 03:54:00,
2013-12-28 22:55:00,38.1,6.2,0.00,SW,231,0.0,0.0,26,0.00,CLR,CLR,0.08,WeatherDisplay:10.37,2013-12-29 03:55:00,
2013-12-28 22:57:00,38.1,6.2,26.69,SW,231,0.0,0.0,26,0.00,CLR,,0.08,WeatherDisplay:10.37,2013-12-29 03:57:00,
2013-12-28 22:59:00,38.1,6.2,26.69,South,179,0.0,0.0,26,0.00,CLR,,0.08,WeatherDisplay:10.37,2013-12-29 03:59:00,
2013-12-28 23:01:00,38.1,6.2,26.69,South,178,0.0,0.0,26,0.00,CLR,,0.08,WeatherDisplay:10.37,2013-12-29 04:01:00,
2013-12-28 23:02:00,38.1,6.2,26.69,South,178,0.0,0.0,26,0.00,CLR,,0.08,WeatherDisplay:10.37,2013-12-29 04:02:00,
2013-12-28 23:04:00,38.1,6.2,26.69,South,178,0.0,0.0,26,0.00,CLR,,0.08,WeatherDisplay:10.37,2013-12-29 04:04:00,
2013-12-28 23:07:00,38.1,6.2,26.69,South,178,0.0,0.0,26,0.00,CLR,,0.08,WeatherDisplay:10.37,2013-12-29 04:07:00,
2013-12-28 23:08:00,38.1,6.2,26.69,WSW,255,0.0,0.0,26,0.00,CLR,,0.08,WeatherDisplay:10.37,2013-12-29 04:08:00,
2013-12-28 23:09:00,38.1,6.2,26.69,WSW,255,0.0,0.0,26,0.00,CLR,,0.08,WeatherDisplay:10.37,2013-12-29 04:09:00,
2013-12-28 23:10:00,38.1,6.2,0.00,SSW,199,0.0,0.0,26,0.00,CLR,CLR,0.08,WeatherDisplay:10.37,2013-12-29 04:10:00,
2013-12-28 23:14:00,38.1,6.2,26.69,SSW,203,0.0,0.0,26,0.00,CLR,,0.08,WeatherDisplay:10.37,2013-12-29 04:14:00,
2013-12-28 23:15:00,38.1,6.2,0.00,SW,217,0.0,0.0,26,0.00,CLR,CLR,0.08,WeatherDisplay:10.37,2013-12-29 04:15:00,
2013-12-28 23:18:00,38.1,6.2,26.69,WSW,237,0.0,0.0,26,0.00,CLR,,0.08,WeatherDisplay:10.37,2013-12-29 04:18:00,
2013-12-28 23:19:00,38.1,6.2,26.69,SSW,193,0.0,0.0,26,0.00,CLR,,0.08,WeatherDisplay:10.37,2013-12-29 04:19:00,
2013-12-28 23:20:00,38.1,6.2,0.00,SW,228,0.0,0.0,26,0.00,CLR,CLR,0.08,WeatherDisplay:10.37,2013-12-29 04:20:00,
2013-12-28 23:22:00,38.1,6.2,26.69,SSW,193,0.0,0.0,26,0.00,CLR,,0.08,WeatherDisplay:10.37,2013-12-29 04:22:00,
2013-12-28 23:24:00,38.1,6.2,26.69,SSE,158,0.0,0.0,26,0.00,CLR,,0.08,WeatherDisplay:10.37,2013-12-29 04:24:00,
2013-12-28 23:25:00,37.9,6.0,26.69,SW,222,0.0,0.0,26,0.00,CLR,,0.08,WeatherDisplay:10.37,2013-12-29 04:25:00,
2013-12-28 23:26:00,37.9,6.0,26.69,SSW,209,0.0,0.0,26,0.00,CLR,,0.08,WeatherDisplay:10.37,2013-12-29 04:26:00,
2013-12-28 23:27:00,37.9,6.0,26.69,SSW,210,0.0,0.0,26,0.00,CLR,,0.08,WeatherDisplay:10.37,2013-12-29 04:27:00,
2013-12-28 23:29:00,37.8,5.9,26.69,SSW,209,0.0,0.0,26,0.00,CLR,,0.08,WeatherDisplay:10.37,2013-12-29 04:29:00,
2013-12-28 23:32:00,37.8,5.9,26.69,SW,216,3.5,0.0,26,0.00,CLR,,0.08,WeatherDisplay:10.37,2013-12-29 04:32:00,
2013-12-28 23:34:00,37.9,6.0,26.69,SW,216,0.0,0.0,26,0.00,CLR,,0.08,WeatherDisplay:10.37,2013-12-29 04:34:00,
2013-12-28 23:35:00,37.9,6.0,26.69,SW,216,0.0,0.0,26,0.00,CLR,,0.08,WeatherDisplay:10.37,2013-12-29 04:35:00,
2013-12-28 23:37:00,37.9,6.0,26.69,SSW,204,0.0,0.0,26,0.00,CLR,,0.08,WeatherDisplay:10.37,2013-12-29 04:37:00,
2013-12-28 23:38:00,37.9,6.0,26.69,SSW,197,0.0,0.0,26,0.00,CLR,,0.08,WeatherDisplay:10.37,2013-12-29 04:38:00,
2013-12-28 23:39:00,37.9,6.0,26.69,SSW,197,0.0,0.0,26,0.00,CLR,,0.08,WeatherDisplay:10.37,2013-12-29 04:39:00,
2013-12-28 23:40:00,37.9,6.0,0.00,SSW,209,0.0,0.0,26,0.00,CLR,CLR,0.08,WeatherDisplay:10.37,2013-12-29 04:40:00,
2013-12-28 23:43:00,37.9,6.0,26.69,WSW,241,0.0,0.0,26,0.00,CLR,,0.08,WeatherDisplay:10.37,2013-12-29 04:43:00,
2013-12-28 23:44:00,37.9,6.0,26.69,WSW,241,0.0,0.0,26,0.00,CLR,,0.08,WeatherDisplay:10.37,2013-12-29 04:44:00,
2013-12-28 23:45:00,37.9,6.0,26.69,WSW,241,0.0,0.0,26,0.00,CLR,,0.08,WeatherDisplay:10.37,2013-12-29 04:45:00,
2013-12-28 23:48:00,37.9,6.0,26.69,WSW,241,0.0,0.0,26,0.00,CLR,,0.08,WeatherDisplay:10.37,2013-12-29 04:48:00,
2013-12-28 23:50:00,37.9,6.0,26.69,WSW,241,0.0,0.0,26,0.00,CLR,,0.08,WeatherDisplay:10.37,2013-12-29 04:50:00,
2013-12-28 23:51:00,37.8,5.9,26.69,WSW,241,0.0,0.0,26,0.00,CLR,,0.08,WeatherDisplay:10.37,2013-12-29 04:51:00,
2013-12-28 23:52:00,37.8,5.9,26.69,SW,236,0.0,0.0,26,0.00,CLR,,0.08,WeatherDisplay:10.37,2013-12-29 04:52:00,
2013-12-28 23:53:00,37.8,5.9,26.69,SW,236,0.0,0.0,26,0.00,CLR,,0.08,WeatherDisplay:10.37,2013-12-29 04:53:00,
2013-12-28 23:54:00,37.8,5.9,26.69,SW,236,0.0,0.0,26,0.00,CLR,,0.08,WeatherDisplay:10.37,2013-12-29 04:54:00,
2013-12-28 23:57:00,37.6,5.7,26.69,SW,236,0.0,0.0,26,0.00,CLR,,0.08,WeatherDisplay:10.37,2013-12-29 04:57:00,
2013-12-28 23:58:00,37.6,5.7,26.69,SW,236,0.0,0.0,26,0.00,CLR,,0.08,WeatherDisplay:10.37,2013-12-29 04:58:00,